Time,TemperatureF,DewpointF,PressureIn,WindDirection,WindDirectionDegrees,WindSpeedMPH,WindSpeedGustMPH,Humidity,HourlyPrecipIn,Conditions,Clouds,dailyrainin,SoftwareType,DateUTC
2013-10-28 00:00:00,45.9,36.0,30.14,West,279,2.0,7.0,68,0.00,,,0.00,meteohub,2013-10-28 04:00:00,
2013-10-28 00:01:00,45.9,36.0,30.14,West,279,3.0,7.0,68,0.00,,,0.00,meteohub,2013-10-28 04:01:00,
2013-10-28 00:03:00,45.9,36.0,30.14,West,277,2.0,7.0,68,0.00,,,0.00,meteohub,2013-10-28 04:03:00,
2013-10-28 00:06:00,45.9,36.0,30.14,WNW,294,1.0,6.0,68,0.00,,,0.00,meteohub,2013-10-28 04:06:00,
2013-10-28 00:07:00,45.9,36.0,30.14,WNW,286,3.0,6.0,68,0.00,,,0.00,meteohub,2013-10-28 04:07:00,
2013-10-28 00:08:00,45.9,36.0,30.14,WNW,292,1.0,6.0,68,0.00,,,0.00,meteohub,2013-10-28 04:08:00,
2013-10-28 00:11:00,45.9,36.0,30.14,WNW,296,0.0,6.0,68,0.00,,,0.00,meteohub,2013-10-28 04:11:00,
2013-10-28 00:12:00,45.9,36.0,30.14,WNW,286,6.0,6.0,68,0.00,,,0.00,meteohub,2013-10-28 04:12:00,
2013-10-28 00:14:00,45.9,36.0,30.14,West,275,2.0,6.0,68,0.00,,,0.00,meteohub,2013-10-28 04:14:00,
2013-10-28 00:16:00,45.9,36.0,30.14,West,267,1.0,6.0,68,0.00,,,0.00,meteohub,2013-10-28 04:16:00,
2013-10-28 00:17:00,45.9,36.0,30.14,West,269,1.0,6.0,68,0.00,,,0.00,meteohub,2013-10-28 04:17:00,
2013-10-28 00:19:00,45.7,35.8,30.14,West,276,2.0,6.0,68,0.00,,,0.00,meteohub,2013-10-28 04:19:00,
2013-10-28 00:22:00,45.7,35.8,30.14,West,267,3.0,6.0,68,0.00,,,0.00,meteohub,2013-10-28 04:22:00,
2013-10-28 00:23:00,45.5,35.6,30.14,WNW,286,3.0,6.0,68,0.00,,,0.00,meteohub,2013-10-28 04:23:00,
2013-10-28 00:25:00,45.5,35.6,30.14,WNW,297,3.0,6.0,68,0.00,,,0.00,meteohub,2013-10-28 04:25:00,
2013-10-28 00:27:00,45.3,35.4,30.14,WNW,296,1.0,6.0,68,0.00,,,0.00,meteohub,2013-10-28 04:27:00,
2013-10-28 00:28:00,45.3,35.4,30.14,West,281,2.0,6.0,68,0.00,,,0.00,meteohub,2013-10-28 04:28:00,
2013-10-28 00:30:00,45.1,35.2,30.14,WNW,286,2.0,6.0,68,0.00,,,0.00,meteohub,2013-10-28 04:30:00,
2013-10-28 00:31:00,45.1,35.2,30.14,West,261,0.0,6.0,68,0.00,,,0.00,meteohub,2013-10-28 04:31:00,
2013-10-28 00:32:00,45.1,35.2,30.15,West,261,1.0,6.0,68,0.00,,,0.00,meteohub,2013-10-28 04:32:00,
2013-10-28 00:33:00,45.1,35.2,30.15,West,261,0.0,6.0,68,0.00,,,0.00,meteohub,2013-10-28 04:33:00,
2013-10-28 00:34:00,45.1,35.2,30.15,West,261,2.0,6.0,68,0.00,,,0.00,meteohub,2013-10-28 04:34:00,
2013-10-28 00:35:00,45.1,35.2,30.15,West,261,0.0,6.0,68,0.00,,,0.00,meteohub,2013-10-28 04:35:00,
2013-10-28 00:37:00,45.0,35.1,30.15,West,279,2.0,6.0,68,0.00,,,0.00,meteohub,2013-10-28 04:37:00,
2013-10-28 00:38:00,45.0,35.4,30.15,West,267,2.0,6.0,69,0.00,,,0.00,meteohub,2013-10-28 04:38:00,
2013-10-28 00:39:00,45.0,35.4,30.15,West,267,0.0,6.0,69,0.00,,,0.00,meteohub,2013-10-28 04:39:00,
2013-10-28 00:41:00,45.0,35.4,30.15,West,267,0.0,4.0,69,0.00,,,0.00,meteohub,2013-10-28 04:41:00,
2013-10-28 00:42:00,45.0,35.4,30.15,West,267,0.0,4.0,69,0.00,,,0.00,meteohub,2013-10-28 04:42:00,
2013-10-28 00:43:00,44.8,35.2,30.15,West,267,1.0,4.0,69,0.00,,,0.00,meteohub,2013-10-28 04:43:00,
2013-10-28 00:44:00,45.0,35.8,30.15,West,267,0.0,4.0,70,0.00,,,0.00,meteohub,2013-10-28 04:44:00,
2013-10-28 00:46:00,44.8,35.6,30.15,West,267,1.0,4.0,70,0.00,,,0.00,meteohub,2013-10-28 04:46:00,
2013-10-28 00:47:00,44.8,35.6,30.15,West,269,2.0,4.0,70,0.00,,,0.00,meteohub,2013-10-28 04:47:00,
2013-10-28 00:48:00,44.8,35.6,30.15,West,275,2.0,4.0,70,0.00,,,0.00,meteohub,2013-10-28 04:48:00,
2013-10-28 00:49:00,44.8,35.6,30.15,West,275,0.0,4.0,70,0.00,,,0.00,meteohub,2013-10-28 04:49:00,
2013-10-28 00:51:00,44.8,35.6,30.15,West,275,1.0,4.0,70,0.00,,,0.00,meteohub,2013-10-28 04:51:00,
2013-10-28 00:52:00,44.8,35.6,30.15,West,275,1.0,4.0,70,0.00,,,0.00,meteohub,2013-10-28 04:52:00,
2013-10-28 00:53:00,44.8,36.0,30.15,West,275,1.0,4.0,71,0.00,,,0.00,meteohub,2013-10-28 04:53:00,
2013-10-28 00:54:00,44.8,36.0,30.15,WNW,286,2.0,4.0,71,0.00,,,0.00,meteohub,2013-10-28 04:54:00,
2013-10-28 00:55:00,44.8,36.0,30.15,WSW,244,1.0,4.0,71,0.00,,,0.00,meteohub,2013-10-28 04:55:00,
2013-10-28 00:56:00,44.8,36.0,30.15,WSW,251,2.0,4.0,71,0.00,,,0.00,meteohub,2013-10-28 04:56:00,
2013-10-28 00:59:00,44.8,36.0,30.15,West,271,2.0,4.0,71,0.00,,,0.00,meteohub,2013-10-28 04:59:00,
2013-10-28 01:00:00,44.8,36.0,30.15,West,271,3.0,4.0,71,0.00,,,0.00,meteohub,2013-10-28 05:00:00,
2013-10-28 01:01:00,44.8,36.0,30.15,WSW,257,1.0,4.0,71,0.00,,,0.00,meteohub,2013-10-28 05:01:00,
2013-10-28 01:05:00,44.8,36.0,30.15,WSW,257,1.0,4.0,71,0.00,,,0.00,meteohub,2013-10-28 05:05:00,
2013-10-28 01:06:00,44.6,35.8,30.15,WSW,257,1.0,3.0,71,0.00,,,0.00,meteohub,2013-10-28 05:06:00,
2013-10-28 01:10:00,44.6,36.1,30.15,WSW,257,0.0,3.0,72,0.00,,,0.00,meteohub,2013-10-28 05:10:00,
2013-10-28 01:11:00,44.6,36.1,30.15,WNW,284,0.0,3.0,72,0.00,,,0.00,meteohub,2013-10-28 05:11:00,
2013-10-28 01:12:00,44.6,36.1,30.15,West,273,1.0,3.0,72,0.00,,,0.00,meteohub,2013-10-28 05:12:00,
2013-10-28 01:15:00,44.6,36.1,30.15,WNW,292,2.0,4.0,72,0.00,,,0.00,meteohub,2013-10-28 05:15:00,
2013-10-28 01:16:00,44.6,36.1,30.15,WNW,292,3.0,4.0,72,0.00,,,0.00,meteohub,2013-10-28 05:16:00,
2013-10-28 01:17:00,44.6,36.1,30.15,WNW,292,1.0,4.0,72,0.00,,,0.00,meteohub,2013-10-28 05:17:00,
2013-10-28 01:20:00,44.4,36.0,30.15,WNW,290,4.0,4.0,72,0.00,,,0.00,meteohub,2013-10-28 05:20:00,
2013-10-28 01:21:00,44.4,36.0,30.15,WNW,292,1.0,4.0,72,0.00,,,0.00,meteohub,2013-10-28 05:21:00,
2013-10-28 01:22:00,44.4,35.6,30.15,West,280,4.0,4.0,71,0.00,,,0.00,meteohub,2013-10-28 05:22:00,
2013-10-28 01:23:00,44.4,35.6,30.15,West,270,2.0,4.0,71,0.00,,,0.00,meteohub,2013-10-28 05:23:00,
2013-10-28 01:25:00,44.2,35.4,30.15,WNW,296,4.0,4.0,71,0.00,,,0.00,meteohub,2013-10-28 05:25:00,
2013-10-28 01:26:00,44.2,35.4,30.15,West,281,4.0,4.0,71,0.00,,,0.00,meteohub,2013-10-28 05:26:00,
2013-10-28 01:28:00,44.2,35.4,30.15,West,279,2.0,4.0,71,0.00,,,0.00,meteohub,2013-10-28 05:28:00,
2013-10-28 01:29:00,44.2,35.1,30.15,West,279,3.0,4.0,70,0.00,,,0.00,meteohub,2013-10-28 05:29:00,
2013-10-28 01:31:00,44.1,34.9,30.15,West,279,1.0,4.0,70,0.00,,,0.00,meteohub,2013-10-28 05:31:00,
2013-10-28 01:33:00,44.1,34.9,30.15,West,279,1.0,4.0,70,0.00,,,0.00,meteohub,2013-10-28 05:33:00,
2013-10-28 01:35:00,44.1,35.2,30.15,West,279,0.0,4.0,71,0.00,,,0.00,meteohub,2013-10-28 05:35:00,
2013-10-28 01:36:00,43.9,35.1,30.15,West,279,0.0,4.0,71,0.00,,,0.00,meteohub,2013-10-28 05:36:00,
2013-10-28 01:38:00,43.9,35.1,30.15,West,279,1.0,4.0,71,0.00,,,0.00,meteohub,2013-10-28 05:38:00,
2013-10-28 01:40:00,43.9,35.1,30.15,West,279,2.0,4.0,71,0.00,,,0.00,meteohub,2013-10-28 05:40:00,
2013-10-28 01:41:00,43.9,35.1,30.15,West,279,3.0,4.0,71,0.00,,,0.00,meteohub,2013-10-28 05:41:00,
2013-10-28 01:42:00,43.9,35.1,30.15,West,279,2.0,4.0,71,0.00,,,0.00,meteohub,2013-10-28 05:42:00,
2013-10-28 01:45:00,43.9,35.1,30.15,West,279,3.0,4.0,71,0.00,,,0.00,meteohub,2013-10-28 05:45:00,
2013-10-28 01:46:00,43.9,35.4,30.15,West,279,2.0,4.0,72,0.00,,,0.00,meteohub,2013-10-28 05:46:00,
2013-10-28 01:47:00,43.9,35.4,30.14,West,279,2.0,4.0,72,0.00,,,0.00,meteohub,2013-10-28 05:47:00,
2013-10-28 01:48:00,43.7,35.2,30.14,West,279,1.0,4.0,72,0.00,,,0.00,meteohub,2013-10-28 05:48:00,
2013-10-28 01:50:00,43.7,35.2,30.14,West,279,0.0,4.0,72,0.00,,,0.00,meteohub,2013-10-28 05:50:00,
2013-10-28 01:51:00,43.7,35.2,30.15,West,279,0.0,4.0,72,0.00,,,0.00,meteohub,2013-10-28 05:51:00,
2013-10-28 01:52:00,43.7,35.2,30.15,West,279,1.0,4.0,72,0.00,,,0.00,meteohub,2013-10-28 05:52:00,
2013-10-28 01:53:00,43.5,35.1,30.15,West,279,0.0,4.0,72,0.00,,,0.00,meteohub,2013-10-28 05:53:00,
2013-10-28 01:55:00,43.5,35.1,30.14,West,279,1.0,3.0,72,0.00,,,0.00,meteohub,2013-10-28 05:55:00,
2013-10-28 01:57:00,43.5,35.1,30.14,West,279,0.0,3.0,72,0.00,,,0.00,meteohub,2013-10-28 05:57:00,
2013-10-28 01:58:00,43.5,35.1,30.14,West,279,1.0,3.0,72,0.00,,,0.00,meteohub,2013-10-28 05:58:00,
2013-10-28 02:02:00,43.5,35.1,30.14,West,279,0.0,3.0,72,0.00,,,0.00,meteohub,2013-10-28 06:02:00,
2013-10-28 02:03:00,43.5,35.1,30.14,West,279,0.0,3.0,72,0.00,,,0.00,meteohub,2013-10-28 06:03:00,
2013-10-28 02:04:00,43.3,34.9,30.14,West,279,0.0,3.0,72,0.00,,,0.00,meteohub,2013-10-28 06:04:00,
2013-10-28 02:07:00,43.3,34.9,30.12,NE,43,1.0,3.0,72,0.00,,,0.00,meteohub,2013-10-28 06:07:00,
2013-10-28 02:08:00,43.3,34.9,30.12,WSW,240,0.0,3.0,72,0.00,,,0.00,meteohub,2013-10-28 06:08:00,
2013-10-28 02:12:00,43.3,34.9,30.12,SSW,205,1.0,3.0,72,0.00,,,0.00,meteohub,2013-10-28 06:12:00,
2013-10-28 02:13:00,43.5,35.1,30.12,West,272,1.0,3.0,72,0.00,,,0.00,meteohub,2013-10-28 06:13:00,
2013-10-28 02:14:00,43.5,35.1,30.12,West,271,1.0,3.0,72,0.00,,,0.00,meteohub,2013-10-28 06:14:00,
2013-10-28 02:16:00,43.7,35.2,30.13,WNW,288,1.0,4.0,72,0.00,,,0.00,meteohub,2013-10-28 06:16:00,
2013-10-28 02:17:00,44.1,35.2,30.13,WNW,292,4.0,4.0,71,0.00,,,0.00,meteohub,2013-10-28 06:17:00,
2013-10-28 02:18:00,44.1,35.2,30.13,WNW,300,1.0,4.0,71,0.00,,,0.00,meteohub,2013-10-28 06:18:00,
2013-10-28 02:19:00,44.1,35.2,30.13,WNW,300,1.0,4.0,71,0.00,,,0.00,meteohub,2013-10-28 06:19:00,
2013-10-28 02:20:00,44.2,35.1,30.13,NW,321,0.0,4.0,70,0.00,,,0.00,meteohub,2013-10-28 06:20:00,
2013-10-28 02:21:00,44.2,35.1,30.12,West,274,1.0,4.0,70,0.00,,,0.00,meteohub,2013-10-28 06:21:00,
2013-10-28 02:23:00,44.2,35.1,30.12,West,271,0.0,4.0,70,0.00,,,0.00,meteohub,2013-10-28 06:23:00,
2013-10-28 02:24:00,44.2,35.1,30.12,West,272,0.0,4.0,70,0.00,,,0.00,meteohub,2013-10-28 06:24:00,
2013-10-28 02:25:00,44.2,35.1,30.12,West,271,0.0,4.0,70,0.00,,,0.00,meteohub,2013-10-28 06:25:00,
2013-10-28 02:27:00,44.2,35.1,30.12,West,268,0.0,4.0,70,0.00,,,0.00,meteohub,2013-10-28 06:27:00,
2013-10-28 02:29:00,44.1,34.9,30.12,WSW,244,1.0,4.0,70,0.00,,,0.00,meteohub,2013-10-28 06:29:00,
2013-10-28 02:30:00,44.1,34.9,30.12,WNW,286,0.0,4.0,70,0.00,,,0.00,meteohub,2013-10-28 06:30:00,
2013-10-28 02:31:00,44.1,34.9,30.12,West,275,1.0,4.0,70,0.00,,,0.00,meteohub,2013-10-28 06:31:00,
2013-10-28 02:32:00,44.1,34.9,30.13,West,275,2.0,4.0,70,0.00,,,0.00,meteohub,2013-10-28 06:32:00,
2013-10-28 02:34:00,44.1,34.9,30.13,West,275,1.0,4.0,70,0.00,,,0.00,meteohub,2013-10-28 06:34:00,
2013-10-28 02:35:00,44.1,34.9,30.13,West,275,2.0,4.0,70,0.00,,,0.00,meteohub,2013-10-28 06:35:00,
2013-10-28 02:37:00,44.2,35.1,30.13,West,275,1.0,4.0,70,0.00,,,0.00,meteohub,2013-10-28 06:37:00,
2013-10-28 02:39:00,44.2,35.4,30.13,West,275,1.0,4.0,71,0.00,,,0.00,meteohub,2013-10-28 06:39:00,
2013-10-28 02:40:00,44.2,35.4,30.13,West,275,0.0,4.0,71,0.00,,,0.00,meteohub,2013-10-28 06:40:00,
2013-10-28 02:44:00,44.2,35.1,30.13,WNW,302,0.0,4.0,70,0.00,,,0.00,meteohub,2013-10-28 06:44:00,
2013-10-28 02:45:00,44.2,35.1,30.13,WNW,297,2.0,4.0,70,0.00,,,0.00,meteohub,2013-10-28 06:45:00,
2013-10-28 02:46:00,44.2,35.1,30.13,WNW,298,4.0,4.0,70,0.00,,,0.00,meteohub,2013-10-28 06:46:00,
2013-10-28 02:50:00,44.2,34.7,30.13,WNW,299,1.0,7.0,69,0.00,,,0.00,meteohub,2013-10-28 06:50:00,
2013-10-28 02:51:00,44.2,34.7,30.13,WNW,298,0.0,7.0,69,0.00,,,0.00,meteohub,2013-10-28 06:51:00,
2013-10-28 02:53:00,44.2,34.7,30.13,WSW,252,0.0,7.0,69,0.00,,,0.00,meteohub,2013-10-28 06:53:00,
2013-10-28 02:54:00,44.2,34.7,30.13,WNW,284,3.0,7.0,69,0.00,,,0.00,meteohub,2013-10-28 06:54:00,
2013-10-28 02:55:00,44.2,34.3,30.12,WNW,290,0.0,7.0,68,0.00,,,0.00,meteohub,2013-10-28 06:55:00,
2013-10-28 02:56:00,44.2,34.3,30.13,WNW,288,0.0,7.0,68,0.00,,,0.00,meteohub,2013-10-28 06:56:00,
2013-10-28 02:58:00,44.1,34.2,30.13,West,278,3.0,7.0,68,0.00,,,0.00,meteohub,2013-10-28 06:58:00,
2013-10-28 02:59:00,44.1,34.2,30.13,WNW,286,0.0,7.0,68,0.00,,,0.00,meteohub,2013-10-28 06:59:00,
2013-10-28 03:01:00,44.1,34.2,30.13,WNW,290,0.0,7.0,68,0.00,,,0.00,meteohub,2013-10-28 07:01:00,
2013-10-28 03:04:00,44.1,34.2,30.13,West,281,0.0,7.0,68,0.00,,,0.00,meteohub,2013-10-28 07:04:00,
2013-10-28 03:06:00,44.1,34.2,30.13,WNW,300,0.0,4.0,68,0.00,,,0.00,meteohub,2013-10-28 07:06:00,
2013-10-28 03:07:00,44.1,34.2,30.13,NW,304,0.0,4.0,68,0.00,,,0.00,meteohub,2013-10-28 07:07:00,
2013-10-28 03:09:00,44.1,34.2,30.12,West,270,1.0,4.0,68,0.00,,,0.00,meteohub,2013-10-28 07:09:00,
2013-10-28 03:10:00,44.1,34.2,30.12,West,267,1.0,4.0,68,0.00,,,0.00,meteohub,2013-10-28 07:10:00,
2013-10-28 03:12:00,44.1,34.2,30.12,West,263,2.0,4.0,68,0.00,,,0.00,meteohub,2013-10-28 07:12:00,
2013-10-28 03:15:00,43.9,34.0,30.12,WNW,286,0.0,4.0,68,0.00,,,0.00,meteohub,2013-10-28 07:15:00,
2013-10-28 03:16:00,43.9,34.0,30.13,WNW,301,1.0,4.0,68,0.00,,,0.00,meteohub,2013-10-28 07:16:00,
2013-10-28 03:17:00,43.9,34.0,30.13,WNW,301,0.0,4.0,68,0.00,,,0.00,meteohub,2013-10-28 07:17:00,
2013-10-28 03:20:00,43.9,34.0,30.13,WNW,301,1.0,3.0,68,0.00,,,0.00,meteohub,2013-10-28 07:20:00,
2013-10-28 03:22:00,43.9,34.0,30.13,WNW,301,0.0,3.0,68,0.00,,,0.00,meteohub,2013-10-28 07:22:00,
2013-10-28 03:25:00,43.9,34.0,30.13,WNW,301,1.0,3.0,68,0.00,,,0.00,meteohub,2013-10-28 07:25:00,
2013-10-28 03:26:00,43.9,34.0,30.14,WNW,301,1.0,3.0,68,0.00,,,0.00,meteohub,2013-10-28 07:26:00,
2013-10-28 03:27:00,43.9,34.0,30.13,WNW,301,1.0,3.0,68,0.00,,,0.00,meteohub,2013-10-28 07:27:00,
2013-10-28 03:28:00,43.9,34.3,30.14,WNW,301,2.0,3.0,69,0.00,,,0.00,meteohub,2013-10-28 07:28:00,
2013-10-28 03:32:00,43.9,34.3,30.14,WNW,301,2.0,3.0,69,0.00,,,0.00,meteohub,2013-10-28 07:32:00,
2013-10-28 03:33:00,43.9,34.3,30.14,WNW,301,0.0,3.0,69,0.00,,,0.00,meteohub,2013-10-28 07:33:00,
2013-10-28 03:34:00,43.9,34.3,30.14,WNW,301,0.0,3.0,69,0.00,,,0.00,meteohub,2013-10-28 07:34:00,
2013-10-28 03:37:00,43.7,34.2,30.14,WNW,301,1.0,4.0,69,0.00,,,0.00,meteohub,2013-10-28 07:37:00,
2013-10-28 03:39:00,43.5,34.0,30.14,WNW,301,2.0,4.0,69,0.00,,,0.00,meteohub,2013-10-28 07:39:00,
2013-10-28 03:42:00,43.5,34.0,30.14,WNW,301,0.0,4.0,69,0.00,,,0.00,meteohub,2013-10-28 07:42:00,
2013-10-28 03:43:00,43.5,34.0,30.14,WNW,301,1.0,4.0,69,0.00,,,0.00,meteohub,2013-10-28 07:43:00,
2013-10-28 03:44:00,43.5,34.0,30.14,WNW,301,1.0,4.0,69,0.00,,,0.00,meteohub,2013-10-28 07:44:00,
2013-10-28 03:45:00,43.5,34.0,30.14,WNW,301,4.0,4.0,69,0.00,,,0.00,meteohub,2013-10-28 07:45:00,
2013-10-28 03:48:00,43.5,34.0,30.14,WNW,301,1.0,4.0,69,0.00,,,0.00,meteohub,2013-10-28 07:48:00,
2013-10-28 03:49:00,43.5,34.0,30.14,WNW,301,1.0,4.0,69,0.00,,,0.00,meteohub,2013-10-28 07:49:00,
2013-10-28 03:50:00,43.5,34.0,30.14,WNW,301,2.0,4.0,69,0.00,,,0.00,meteohub,2013-10-28 07:50:00,
2013-10-28 03:51:00,43.5,34.0,30.14,WNW,301,1.0,4.0,69,0.00,,,0.00,meteohub,2013-10-28 07:51:00,
2013-10-28 03:53:00,43.5,34.3,30.14,WNW,301,0.0,4.0,70,0.00,,,0.00,meteohub,2013-10-28 07:53:00,
2013-10-28 03:54:00,43.5,34.3,30.14,WNW,301,0.0,4.0,70,0.00,,,0.00,meteohub,2013-10-28 07:54:00,
2013-10-28 03:55:00,43.5,34.3,30.14,WNW,301,1.0,4.0,70,0.00,,,0.00,meteohub,2013-10-28 07:55:00,
2013-10-28 03:57:00,43.3,34.5,30.14,WNW,301,2.0,4.0,71,0.00,,,0.00,meteohub,2013-10-28 07:57:00,
2013-10-28 03:58:00,43.3,34.5,30.14,WNW,301,0.0,4.0,71,0.00,,,0.00,meteohub,2013-10-28 07:58:00,
2013-10-28 03:59:00,43.3,34.5,30.14,WNW,301,1.0,4.0,71,0.00,,,0.00,meteohub,2013-10-28 07:59:00,
2013-10-28 04:00:00,43.3,34.5,30.14,WNW,301,0.0,4.0,71,0.00,,,0.00,meteohub,2013-10-28 08:00:00,
2013-10-28 04:01:00,43.3,34.5,30.14,WNW,301,1.0,4.0,71,0.00,,,0.00,meteohub,2013-10-28 08:01:00,
2013-10-28 04:02:00,43.3,34.9,30.14,WNW,301,1.0,4.0,72,0.00,,,0.00,meteohub,2013-10-28 08:02:00,
2013-10-28 04:04:00,43.3,34.9,30.14,WNW,287,2.0,4.0,72,0.00,,,0.00,meteohub,2013-10-28 08:04:00,
2013-10-28 04:05:00,43.3,34.9,30.14,WNW,287,1.0,4.0,72,0.00,,,0.00,meteohub,2013-10-28 08:05:00,
2013-10-28 04:06:00,43.3,34.9,30.14,WNW,287,0.0,4.0,72,0.00,,,0.00,meteohub,2013-10-28 08:06:00,
2013-10-28 04:08:00,43.3,34.9,30.14,West,279,1.0,4.0,72,0.00,,,0.00,meteohub,2013-10-28 08:08:00,
2013-10-28 04:09:00,43.3,34.9,30.14,West,279,1.0,4.0,72,0.00,,,0.00,meteohub,2013-10-28 08:09:00,
2013-10-28 04:10:00,43.3,34.9,30.14,West,279,1.0,4.0,72,0.00,,,0.00,meteohub,2013-10-28 08:10:00,
2013-10-28 04:11:00,43.3,35.2,30.14,West,279,0.0,4.0,73,0.00,,,0.00,meteohub,2013-10-28 08:11:00,
2013-10-28 04:14:00,43.2,35.1,30.14,West,279,2.0,4.0,73,0.00,,,0.00,meteohub,2013-10-28 08:14:00,
2013-10-28 04:16:00,43.0,34.9,30.14,West,279,2.0,4.0,73,0.00,,,0.00,meteohub,2013-10-28 08:16:00,
2013-10-28 04:17:00,43.0,34.9,30.14,West,279,1.0,4.0,73,0.00,,,0.00,meteohub,2013-10-28 08:17:00,
2013-10-28 04:18:00,43.0,34.9,30.14,West,279,3.0,4.0,73,0.00,,,0.00,meteohub,2013-10-28 08:18:00,
2013-10-28 04:19:00,43.0,34.9,30.14,West,279,2.0,4.0,73,0.00,,,0.00,meteohub,2013-10-28 08:19:00,
2013-10-28 04:20:00,42.8,35.1,30.15,West,279,1.0,4.0,74,0.00,,,0.00,meteohub,2013-10-28 08:20:00,
2013-10-28 04:21:00,42.8,35.1,30.15,West,279,2.0,4.0,74,0.00,,,0.00,meteohub,2013-10-28 08:21:00,
2013-10-28 04:22:00,42.6,34.9,30.14,West,279,1.0,4.0,74,0.00,,,0.00,meteohub,2013-10-28 08:22:00,
2013-10-28 04:23:00,42.6,34.9,30.15,West,263,4.0,4.0,74,0.00,,,0.00,meteohub,2013-10-28 08:23:00,
2013-10-28 04:24:00,42.6,34.9,30.15,West,263,1.0,4.0,74,0.00,,,0.00,meteohub,2013-10-28 08:24:00,
2013-10-28 04:26:00,42.4,34.7,30.15,West,274,1.0,4.0,74,0.00,,,0.00,meteohub,2013-10-28 08:26:00,
2013-10-28 04:27:00,42.4,34.7,30.15,West,274,2.0,4.0,74,0.00,,,0.00,meteohub,2013-10-28 08:27:00,
2013-10-28 04:28:00,42.4,34.7,30.15,West,274,1.0,4.0,74,0.00,,,0.00,meteohub,2013-10-28 08:28:00,
2013-10-28 04:29:00,42.4,34.7,30.15,West,274,1.0,4.0,74,0.00,,,0.00,meteohub,2013-10-28 08:29:00,
2013-10-28 04:31:00,42.4,34.7,30.15,West,274,0.0,4.0,74,0.00,,,0.00,meteohub,2013-10-28 08:31:00,
2013-10-28 04:32:00,42.3,34.5,30.15,West,274,1.0,4.0,74,0.00,,,0.00,meteohub,2013-10-28 08:32:00,
2013-10-28 04:34:00,42.3,34.5,30.15,West,274,0.0,4.0,74,0.00,,,0.00,meteohub,2013-10-28 08:34:00,
2013-10-28 04:37:00,42.3,34.9,30.15,West,274,0.0,4.0,75,0.00,,,0.00,meteohub,2013-10-28 08:37:00,
2013-10-28 04:38:00,42.3,34.9,30.15,West,274,0.0,4.0,75,0.00,,,0.00,meteohub,2013-10-28 08:38:00,
2013-10-28 04:39:00,42.3,34.9,30.15,West,274,0.0,4.0,75,0.00,,,0.00,meteohub,2013-10-28 08:39:00,
2013-10-28 04:40:00,42.3,34.9,30.15,West,274,1.0,3.0,75,0.00,,,0.00,meteohub,2013-10-28 08:40:00,
2013-10-28 04:43:00,42.3,34.9,30.15,WNW,287,3.0,3.0,75,0.00,,,0.00,meteohub,2013-10-28 08:43:00,
2013-10-28 04:45:00,42.3,34.9,30.15,WNW,287,2.0,3.0,75,0.00,,,0.00,meteohub,2013-10-28 08:45:00,
2013-10-28 04:46:00,42.3,34.9,30.15,WNW,287,3.0,4.0,75,0.00,,,0.00,meteohub,2013-10-28 08:46:00,
2013-10-28 04:48:00,42.3,34.9,30.15,WNW,287,3.0,4.0,75,0.00,,,0.00,meteohub,2013-10-28 08:48:00,
2013-10-28 04:49:00,42.3,34.9,30.15,WNW,287,2.0,4.0,75,0.00,,,0.00,meteohub,2013-10-28 08:49:00,
2013-10-28 04:50:00,42.3,34.9,30.15,WNW,287,2.0,4.0,75,0.00,,,0.00,meteohub,2013-10-28 08:50:00,
2013-10-28 04:52:00,42.3,34.9,30.15,WNW,287,1.0,4.0,75,0.00,,,0.00,meteohub,2013-10-28 08:52:00,
2013-10-28 04:54:00,42.3,34.9,30.16,WNW,287,1.0,4.0,75,0.00,,,0.00,meteohub,2013-10-28 08:54:00,
2013-10-28 04:55:00,42.3,34.9,30.16,WNW,287,2.0,4.0,75,0.00,,,0.00,meteohub,2013-10-28 08:55:00,
2013-10-28 04:56:00,42.3,34.9,30.16,WNW,287,1.0,4.0,75,0.00,,,0.00,meteohub,2013-10-28 08:56:00,
2013-10-28 04:57:00,42.3,34.9,30.16,WNW,287,0.0,4.0,75,0.00,,,0.00,meteohub,2013-10-28 08:57:00,
2013-10-28 04:58:00,42.3,34.9,30.16,WNW,287,1.0,4.0,75,0.00,,,0.00,meteohub,2013-10-28 08:58:00,
2013-10-28 05:00:00,42.3,34.9,30.16,WNW,287,1.0,4.0,75,0.00,,,0.00,meteohub,2013-10-28 09:00:00,
2013-10-28 05:01:00,42.4,35.1,30.16,WNW,287,1.0,3.0,75,0.00,,,0.00,meteohub,2013-10-28 09:01:00,
2013-10-28 05:03:00,42.4,35.4,30.16,WNW,287,2.0,3.0,76,0.00,,,0.00,meteohub,2013-10-28 09:03:00,
2013-10-28 05:05:00,42.4,35.4,30.16,WNW,287,1.0,3.0,76,0.00,,,0.00,meteohub,2013-10-28 09:05:00,
2013-10-28 05:06:00,42.4,35.4,30.16,WNW,287,0.0,3.0,76,0.00,,,0.00,meteohub,2013-10-28 09:06:00,
2013-10-28 05:07:00,42.4,35.4,30.16,WNW,287,0.0,3.0,76,0.00,,,0.00,meteohub,2013-10-28 09:07:00,
2013-10-28 05:08:00,42.4,35.4,30.16,WNW,287,0.0,3.0,76,0.00,,,0.00,meteohub,2013-10-28 09:08:00,
2013-10-28 05:09:00,42.4,35.4,30.16,WNW,292,2.0,3.0,76,0.00,,,0.00,meteohub,2013-10-28 09:09:00,
2013-10-28 05:11:00,42.4,35.4,30.16,WSW,258,2.0,4.0,76,0.00,,,0.00,meteohub,2013-10-28 09:11:00,
2013-10-28 05:12:00,42.4,35.4,30.16,WSW,250,2.0,4.0,76,0.00,,,0.00,meteohub,2013-10-28 09:12:00,
2013-10-28 05:13:00,42.4,35.4,30.16,West,259,2.0,4.0,76,0.00,,,0.00,meteohub,2013-10-28 09:13:00,
2013-10-28 05:14:00,42.4,35.4,30.16,West,259,2.0,4.0,76,0.00,,,0.00,meteohub,2013-10-28 09:14:00,
2013-10-28 05:16:00,42.4,35.4,30.16,WSW,258,2.0,6.0,76,0.00,,,0.00,meteohub,2013-10-28 09:16:00,
2013-10-28 05:17:00,42.3,35.2,30.16,WSW,258,2.0,6.0,76,0.00,,,0.00,meteohub,2013-10-28 09:17:00,
2013-10-28 05:19:00,42.3,35.2,30.16,WSW,258,1.0,6.0,76,0.00,,,0.00,meteohub,2013-10-28 09:19:00,
2013-10-28 05:20:00,42.3,35.2,30.16,WSW,258,1.0,6.0,76,0.00,,,0.00,meteohub,2013-10-28 09:20:00,
2013-10-28 05:21:00,42.3,35.2,30.17,WSW,258,1.0,6.0,76,0.00,,,0.00,meteohub,2013-10-28 09:21:00,
2013-10-28 05:22:00,42.3,35.2,30.16,WSW,258,2.0,6.0,76,0.00,,,0.00,meteohub,2013-10-28 09:22:00,
2013-10-28 05:23:00,42.3,35.2,30.16,WSW,258,1.0,6.0,76,0.00,,,0.00,meteohub,2013-10-28 09:23:00,
2013-10-28 05:24:00,42.3,35.2,30.16,WSW,258,1.0,6.0,76,0.00,,,0.00,meteohub,2013-10-28 09:24:00,
2013-10-28 05:25:00,42.4,35.4,30.17,WSW,258,2.0,6.0,76,0.00,,,0.00,meteohub,2013-10-28 09:25:00,
2013-10-28 05:26:00,42.4,35.4,30.17,WSW,258,3.0,6.0,76,0.00,,,0.00,meteohub,2013-10-28 09:26:00,
2013-10-28 05:27:00,42.4,35.8,30.17,WSW,258,2.0,6.0,77,0.00,,,0.00,meteohub,2013-10-28 09:27:00,
2013-10-28 05:28:00,42.4,35.8,30.17,WSW,258,1.0,6.0,77,0.00,,,0.00,meteohub,2013-10-28 09:28:00,
2013-10-28 05:29:00,42.4,35.4,30.17,WSW,258,1.0,6.0,76,0.00,,,0.00,meteohub,2013-10-28 09:29:00,
2013-10-28 05:30:00,42.4,35.8,30.17,WSW,258,2.0,6.0,77,0.00,,,0.00,meteohub,2013-10-28 09:30:00,
2013-10-28 05:32:00,42.4,35.8,30.17,WSW,258,0.0,4.0,77,0.00,,,0.00,meteohub,2013-10-28 09:32:00,
2013-10-28 05:33:00,42.4,35.8,30.17,WSW,258,1.0,4.0,77,0.00,,,0.00,meteohub,2013-10-28 09:33:00,
2013-10-28 05:34:00,42.4,35.8,30.17,WSW,258,2.0,4.0,77,0.00,,,0.00,meteohub,2013-10-28 09:34:00,
2013-10-28 05:35:00,42.4,35.8,30.17,WSW,258,1.0,4.0,77,0.00,,,0.00,meteohub,2013-10-28 09:35:00,
2013-10-28 05:37:00,42.4,35.8,30.17,WSW,258,2.0,4.0,77,0.00,,,0.00,meteohub,2013-10-28 09:37:00,
2013-10-28 05:38:00,42.4,35.8,30.17,WSW,258,1.0,4.0,77,0.00,,,0.00,meteohub,2013-10-28 09:38:00,
2013-10-28 05:40:00,42.4,35.8,30.17,WSW,258,1.0,4.0,77,0.00,,,0.00,meteohub,2013-10-28 09:40:00,
2013-10-28 05:41:00,42.4,35.8,30.17,WSW,258,1.0,4.0,77,0.00,,,0.00,meteohub,2013-10-28 09:41:00,
2013-10-28 05:42:00,42.4,35.8,30.17,WSW,258,0.0,4.0,77,0.00,,,0.00,meteohub,2013-10-28 09:42:00,
2013-10-28 05:43:00,42.4,35.8,30.17,WSW,258,1.0,4.0,77,0.00,,,0.00,meteohub,2013-10-28 09:43:00,
2013-10-28 05:44:00,42.3,35.6,30.17,WSW,258,3.0,4.0,77,0.00,,,0.00,meteohub,2013-10-28 09:44:00,
2013-10-28 05:45:00,42.3,35.6,30.17,WSW,258,2.0,4.0,77,0.00,,,0.00,meteohub,2013-10-28 09:45:00,
2013-10-28 05:46:00,42.3,35.6,30.17,West,259,4.0,4.0,77,0.00,,,0.00,meteohub,2013-10-28 09:46:00,
2013-10-28 05:47:00,42.3,35.6,30.17,West,259,2.0,3.0,77,0.00,,,0.00,meteohub,2013-10-28 09:47:00,
2013-10-28 05:49:00,42.3,36.0,30.17,West,259,2.0,3.0,78,0.00,,,0.00,meteohub,2013-10-28 09:49:00,
2013-10-28 05:50:00,42.3,36.0,30.17,West,259,2.0,3.0,78,0.00,,,0.00,meteohub,2013-10-28 09:50:00,
2013-10-28 05:51:00,42.3,36.0,30.17,West,259,3.0,4.0,78,0.00,,,0.00,meteohub,2013-10-28 09:51:00,
2013-10-28 05:52:00,42.3,36.0,30.17,West,259,2.0,4.0,78,0.00,,,0.00,meteohub,2013-10-28 09:52:00,
2013-10-28 05:53:00,42.4,36.1,30.17,West,259,2.0,4.0,78,0.00,,,0.00,meteohub,2013-10-28 09:53:00,
2013-10-28 05:54:00,42.4,36.1,30.17,West,259,2.0,4.0,78,0.00,,,0.00,meteohub,2013-10-28 09:54:00,
2013-10-28 05:56:00,42.3,36.0,30.17,West,259,2.0,4.0,78,0.00,,,0.00,meteohub,2013-10-28 09:56:00,
2013-10-28 05:57:00,42.4,36.1,30.17,West,259,1.0,4.0,78,0.00,,,0.00,meteohub,2013-10-28 09:57:00,
2013-10-28 05:58:00,42.3,36.0,30.17,West,259,0.0,4.0,78,0.00,,,0.00,meteohub,2013-10-28 09:58:00,
2013-10-28 05:59:00,42.3,36.0,30.17,West,259,0.0,4.0,78,0.00,,,0.00,meteohub,2013-10-28 09:59:00,
2013-10-28 06:01:00,42.3,36.0,30.17,West,259,2.0,4.0,78,0.00,,,0.00,meteohub,2013-10-28 10:01:00,
2013-10-28 06:02:00,42.3,36.0,30.17,West,259,2.0,4.0,78,0.00,,,0.00,meteohub,2013-10-28 10:02:00,
2013-10-28 06:03:00,42.3,36.0,30.17,West,259,3.0,4.0,78,0.00,,,0.00,meteohub,2013-10-28 10:03:00,
2013-10-28 06:05:00,42.3,36.0,30.17,West,259,3.0,4.0,78,0.00,,,0.00,meteohub,2013-10-28 10:05:00,
2013-10-28 06:07:00,42.3,36.0,30.18,West,259,2.0,4.0,78,0.00,,,0.00,meteohub,2013-10-28 10:07:00,
2013-10-28 06:08:00,42.3,36.0,30.18,West,259,2.0,4.0,78,0.00,,,0.00,meteohub,2013-10-28 10:08:00,
2013-10-28 06:09:00,42.1,35.8,30.18,West,259,2.0,4.0,78,0.00,,,0.00,meteohub,2013-10-28 10:09:00,
2013-10-28 06:10:00,42.1,35.8,30.18,West,259,1.0,4.0,78,0.00,,,0.00,meteohub,2013-10-28 10:10:00,
2013-10-28 06:12:00,41.9,35.2,30.18,West,259,1.0,4.0,77,0.00,,,0.00,meteohub,2013-10-28 10:12:00,
2013-10-28 06:14:00,41.7,35.1,30.18,West,259,0.0,4.0,77,0.00,,,0.00,meteohub,2013-10-28 10:14:00,
2013-10-28 06:15:00,41.7,35.1,30.18,West,259,0.0,4.0,77,0.00,,,0.00,meteohub,2013-10-28 10:15:00,
2013-10-28 06:17:00,41.7,35.4,30.18,West,259,1.0,4.0,78,0.00,,,0.00,meteohub,2013-10-28 10:17:00,
2013-10-28 06:18:00,41.7,35.4,30.18,West,259,3.0,4.0,78,0.00,,,0.00,meteohub,2013-10-28 10:18:00,
2013-10-28 06:19:00,41.7,35.4,30.18,West,259,1.0,4.0,78,0.00,,,0.00,meteohub,2013-10-28 10:19:00,
2013-10-28 06:20:00,41.7,35.4,30.18,West,259,0.0,4.0,78,0.00,,,0.00,meteohub,2013-10-28 10:20:00,
2013-10-28 06:21:00,41.7,35.4,30.18,West,259,1.0,3.0,78,0.00,,,0.00,meteohub,2013-10-28 10:21:00,
2013-10-28 06:22:00,41.7,35.4,30.18,West,259,1.0,3.0,78,0.00,,,0.00,meteohub,2013-10-28 10:22:00,
2013-10-28 06:24:00,41.7,35.4,30.18,West,259,0.0,3.0,78,0.00,,,0.00,meteohub,2013-10-28 10:24:00,
2013-10-28 06:25:00,41.7,35.4,30.18,West,259,1.0,3.0,78,0.00,,,0.00,meteohub,2013-10-28 10:25:00,
2013-10-28 06:26:00,41.7,35.4,30.18,West,259,0.0,4.0,78,0.00,,,0.00,meteohub,2013-10-28 10:26:00,
2013-10-28 06:27:00,41.7,35.4,30.19,West,259,1.0,4.0,78,0.00,,,0.00,meteohub,2013-10-28 10:27:00,
2013-10-28 06:30:00,41.7,35.4,30.19,West,259,2.0,4.0,78,0.00,,,0.00,meteohub,2013-10-28 10:30:00,
2013-10-28 06:31:00,41.7,35.4,30.19,West,259,2.0,4.0,78,0.00,,,0.00,meteohub,2013-10-28 10:31:00,
2013-10-28 06:32:00,41.7,35.4,30.19,West,259,3.0,4.0,78,0.00,,,0.00,meteohub,2013-10-28 10:32:00,
2013-10-28 06:35:00,41.7,35.4,30.19,West,259,3.0,4.0,78,0.00,,,0.00,meteohub,2013-10-28 10:35:00,
2013-10-28 06:37:00,41.7,35.4,30.19,West,259,3.0,4.0,78,0.00,,,0.00,meteohub,2013-10-28 10:37:00,
2013-10-28 06:38:00,41.7,35.4,30.19,West,259,2.0,4.0,78,0.00,,,0.00,meteohub,2013-10-28 10:38:00,
2013-10-28 06:40:00,41.7,35.4,30.19,West,259,0.0,6.0,78,0.00,,,0.00,meteohub,2013-10-28 10:40:00,
2013-10-28 06:41:00,41.5,35.2,30.19,West,259,2.0,6.0,78,0.00,,,0.00,meteohub,2013-10-28 10:41:00,
2013-10-28 06:43:00,41.5,35.2,30.19,West,259,1.0,6.0,78,0.00,,,0.00,meteohub,2013-10-28 10:43:00,
2013-10-28 06:45:00,41.5,35.2,30.19,West,259,0.0,6.0,78,0.00,,,0.00,meteohub,2013-10-28 10:45:00,
2013-10-28 06:46:00,41.5,35.2,30.19,West,259,1.0,6.0,78,0.00,,,0.00,meteohub,2013-10-28 10:46:00,
2013-10-28 06:48:00,41.7,35.4,30.19,West,259,0.0,6.0,78,0.00,,,0.00,meteohub,2013-10-28 10:48:00,
2013-10-28 06:50:00,41.7,35.8,30.19,West,259,1.0,6.0,79,0.00,,,0.00,meteohub,2013-10-28 10:50:00,
2013-10-28 06:51:00,41.7,35.4,30.19,West,259,1.0,6.0,78,0.00,,,0.00,meteohub,2013-10-28 10:51:00,
2013-10-28 06:52:00,41.7,35.4,30.19,West,259,2.0,6.0,78,0.00,,,0.00,meteohub,2013-10-28 10:52:00,
2013-10-28 06:53:00,41.7,35.8,30.19,West,259,2.0,6.0,79,0.00,,,0.00,meteohub,2013-10-28 10:53:00,
2013-10-28 06:54:00,41.7,35.8,30.19,West,259,2.0,6.0,79,0.00,,,0.00,meteohub,2013-10-28 10:54:00,
2013-10-28 06:56:00,41.9,35.8,30.19,WNW,289,1.0,4.0,79,0.00,,,0.00,meteohub,2013-10-28 10:56:00,
2013-10-28 06:57:00,41.9,35.8,30.19,WNW,289,1.0,4.0,79,0.00,,,0.00,meteohub,2013-10-28 10:57:00,
2013-10-28 06:58:00,41.9,35.8,30.20,WNW,289,1.0,4.0,79,0.00,,,0.00,meteohub,2013-10-28 10:58:00,
2013-10-28 06:59:00,41.9,35.8,30.19,WNW,289,0.0,4.0,79,0.00,,,0.00,meteohub,2013-10-28 10:59:00,
2013-10-28 07:01:00,41.9,35.8,30.20,West,272,1.0,5.0,79,0.00,,,0.00,meteohub,2013-10-28 11:01:00,
2013-10-28 07:02:00,41.9,35.8,30.20,West,272,0.0,5.0,79,0.00,,,0.00,meteohub,2013-10-28 11:02:00,
2013-10-28 07:03:00,41.9,35.8,30.20,West,272,3.0,5.0,79,0.00,,,0.00,meteohub,2013-10-28 11:03:00,
2013-10-28 07:05:00,41.9,35.8,30.20,West,272,1.0,5.0,79,0.00,,,0.00,meteohub,2013-10-28 11:05:00,
2013-10-28 07:07:00,41.9,35.8,30.20,West,272,1.0,5.0,79,0.00,,,0.00,meteohub,2013-10-28 11:07:00,
2013-10-28 07:08:00,41.9,35.8,30.20,West,272,1.0,5.0,79,0.00,,,0.00,meteohub,2013-10-28 11:08:00,
2013-10-28 07:09:00,41.9,35.8,30.20,West,272,1.0,5.0,79,0.00,,,0.00,meteohub,2013-10-28 11:09:00,
2013-10-28 07:10:00,41.9,35.8,30.20,West,272,0.0,5.0,79,0.00,,,0.00,meteohub,2013-10-28 11:10:00,
2013-10-28 07:11:00,41.9,35.8,30.20,West,272,2.0,5.0,79,0.00,,,0.00,meteohub,2013-10-28 11:11:00,
2013-10-28 07:12:00,41.9,36.1,30.20,West,272,2.0,5.0,80,0.00,,,0.00,meteohub,2013-10-28 11:12:00,
2013-10-28 07:13:00,41.9,36.1,30.20,West,272,0.0,5.0,80,0.00,,,0.00,meteohub,2013-10-28 11:13:00,
2013-10-28 07:15:00,41.7,36.0,30.21,West,272,0.0,5.0,80,0.00,,,0.00,meteohub,2013-10-28 11:15:00,
2013-10-28 07:16:00,41.7,36.0,30.21,West,272,1.0,3.0,80,0.00,,,0.00,meteohub,2013-10-28 11:16:00,
2013-10-28 07:17:00,41.7,36.0,30.21,West,272,1.0,3.0,80,0.00,,,0.00,meteohub,2013-10-28 11:17:00,
2013-10-28 07:18:00,41.7,36.0,30.21,West,272,2.0,3.0,80,0.00,,,0.00,meteohub,2013-10-28 11:18:00,
2013-10-28 07:19:00,41.7,36.0,30.21,West,272,2.0,3.0,80,0.00,,,0.00,meteohub,2013-10-28 11:19:00,
2013-10-28 07:20:00,41.7,36.0,30.21,West,272,2.0,3.0,80,0.00,,,0.00,meteohub,2013-10-28 11:20:00,
2013-10-28 07:21:00,41.7,36.0,30.21,West,272,1.0,3.0,80,0.00,,,0.00,meteohub,2013-10-28 11:21:00,
2013-10-28 07:23:00,41.5,35.8,30.21,West,272,0.0,3.0,80,0.00,,,0.00,meteohub,2013-10-28 11:23:00,
2013-10-28 07:24:00,41.5,35.8,30.21,West,272,1.0,3.0,80,0.00,,,0.00,meteohub,2013-10-28 11:24:00,
2013-10-28 07:25:00,41.5,35.8,30.21,WNW,292,4.0,4.0,80,0.00,,,0.00,meteohub,2013-10-28 11:25:00,
2013-10-28 07:26:00,41.5,35.8,30.21,West,280,4.0,4.0,80,0.00,,,0.00,meteohub,2013-10-28 11:26:00,
2013-10-28 07:29:00,41.5,35.8,30.21,WNW,297,1.0,4.0,80,0.00,,,0.00,meteohub,2013-10-28 11:29:00,
2013-10-28 07:30:00,41.5,35.8,30.21,WNW,297,2.0,6.0,80,0.00,,,0.00,meteohub,2013-10-28 11:30:00,
2013-10-28 07:31:00,41.4,35.6,30.21,WNW,297,3.0,6.0,80,0.00,,,0.00,meteohub,2013-10-28 11:31:00,
2013-10-28 07:34:00,41.4,36.0,30.21,WNW,297,2.0,6.0,81,0.00,,,0.00,meteohub,2013-10-28 11:34:00,
2013-10-28 07:35:00,41.4,36.0,30.21,WNW,297,2.0,6.0,81,0.00,,,0.00,meteohub,2013-10-28 11:35:00,
2013-10-28 07:36:00,41.4,36.0,30.21,WNW,297,3.0,6.0,81,0.00,,,0.00,meteohub,2013-10-28 11:36:00,
2013-10-28 07:37:00,41.4,36.0,30.21,WNW,297,2.0,6.0,81,0.00,,,0.00,meteohub,2013-10-28 11:37:00,
2013-10-28 07:40:00,41.4,36.0,30.21,WNW,294,2.0,6.0,81,0.00,,,0.00,meteohub,2013-10-28 11:40:00,
2013-10-28 07:41:00,41.4,36.0,30.21,WNW,294,1.0,6.0,81,0.00,,,0.00,meteohub,2013-10-28 11:41:00,
2013-10-28 07:42:00,41.4,36.0,30.21,WNW,300,4.0,6.0,81,0.00,,,0.00,meteohub,2013-10-28 11:42:00,
2013-10-28 07:43:00,41.4,36.0,30.22,WNW,300,1.0,6.0,81,0.00,,,0.00,meteohub,2013-10-28 11:43:00,
2013-10-28 07:46:00,41.2,35.4,30.21,WNW,300,2.0,4.0,80,0.00,,,0.00,meteohub,2013-10-28 11:46:00,
2013-10-28 07:47:00,41.0,35.2,30.21,WNW,300,1.0,4.0,80,0.00,,,0.00,meteohub,2013-10-28 11:47:00,
2013-10-28 07:48:00,40.8,35.1,30.21,WNW,300,3.0,4.0,80,0.00,,,0.00,meteohub,2013-10-28 11:48:00,
2013-10-28 07:51:00,40.8,35.1,30.22,WNW,300,0.0,4.0,80,0.00,,,0.00,meteohub,2013-10-28 11:51:00,
2013-10-28 07:52:00,40.8,35.1,30.22,WNW,300,1.0,4.0,80,0.00,,,0.00,meteohub,2013-10-28 11:52:00,
2013-10-28 07:53:00,40.8,35.1,30.22,WSW,242,3.0,4.0,80,0.00,,,0.00,meteohub,2013-10-28 11:53:00,
2013-10-28 07:54:00,40.8,35.1,30.22,WSW,242,1.0,4.0,80,0.00,,,0.00,meteohub,2013-10-28 11:54:00,
2013-10-28 07:57:00,40.8,35.1,30.22,NW,304,2.0,4.0,80,0.00,,,0.00,meteohub,2013-10-28 11:57:00,
2013-10-28 07:58:00,40.8,35.1,30.22,NW,304,1.0,4.0,80,0.00,,,0.00,meteohub,2013-10-28 11:58:00,
2013-10-28 07:59:00,40.8,35.1,30.22,West,265,0.0,4.0,80,0.00,,,0.00,meteohub,2013-10-28 11:59:00,
2013-10-28 08:02:00,41.0,35.2,30.22,West,265,0.0,4.0,80,0.00,,,0.00,meteohub,2013-10-28 12:02:00,
2013-10-28 08:03:00,41.0,35.1,30.22,West,265,0.0,4.0,79,0.00,,,0.00,meteohub,2013-10-28 12:03:00,
2013-10-28 08:04:00,41.0,35.1,30.22,West,265,1.0,4.0,79,0.00,,,0.00,meteohub,2013-10-28 12:04:00,
2013-10-28 08:07:00,41.2,35.2,30.22,West,265,3.0,4.0,79,0.00,,,0.00,meteohub,2013-10-28 12:07:00,
2013-10-28 08:08:00,41.2,35.2,30.22,West,265,0.0,4.0,79,0.00,,,0.00,meteohub,2013-10-28 12:08:00,
2013-10-28 08:09:00,41.2,35.2,30.22,West,265,1.0,4.0,79,0.00,,,0.00,meteohub,2013-10-28 12:09:00,
2013-10-28 08:10:00,41.2,35.2,30.22,West,265,0.0,4.0,79,0.00,,,0.00,meteohub,2013-10-28 12:10:00,
2013-10-28 08:12:00,41.4,35.4,30.23,West,265,1.0,4.0,79,0.00,,,0.00,meteohub,2013-10-28 12:12:00,
2013-10-28 08:13:00,41.4,35.4,30.22,West,265,0.0,4.0,79,0.00,,,0.00,meteohub,2013-10-28 12:13:00,
2013-10-28 08:14:00,41.4,35.4,30.23,West,265,2.0,4.0,79,0.00,,,0.00,meteohub,2013-10-28 12:14:00,
2013-10-28 08:15:00,41.5,35.6,30.23,WNW,298,0.0,4.0,79,0.00,,,0.00,meteohub,2013-10-28 12:15:00,
2013-10-28 08:18:00,41.5,35.6,30.23,WNW,298,1.0,3.0,79,0.00,,,0.00,meteohub,2013-10-28 12:18:00,
2013-10-28 08:19:00,41.7,35.8,30.23,WNW,298,1.0,3.0,79,0.00,,,0.00,meteohub,2013-10-28 12:19:00,
2013-10-28 08:20:00,41.7,35.8,30.23,WNW,298,0.0,3.0,79,0.00,,,0.00,meteohub,2013-10-28 12:20:00,
2013-10-28 08:24:00,41.9,35.6,30.23,WNW,298,2.0,3.0,78,0.00,,,0.00,meteohub,2013-10-28 12:24:00,
2013-10-28 08:25:00,41.9,35.6,30.23,WNW,298,0.0,3.0,78,0.00,,,0.00,meteohub,2013-10-28 12:25:00,
2013-10-28 08:29:00,42.3,36.0,30.23,WNW,298,0.0,3.0,78,0.00,,,0.00,meteohub,2013-10-28 12:29:00,
2013-10-28 08:30:00,42.3,36.0,30.23,WNW,298,1.0,3.0,78,0.00,,,0.00,meteohub,2013-10-28 12:30:00,
2013-10-28 08:31:00,42.3,36.0,30.23,WNW,298,1.0,3.0,78,0.00,,,0.00,meteohub,2013-10-28 12:31:00,
2013-10-28 08:34:00,42.6,36.3,30.23,WNW,298,1.0,3.0,78,0.00,,,0.00,meteohub,2013-10-28 12:34:00,
2013-10-28 08:35:00,42.6,36.0,30.23,WNW,298,0.0,3.0,77,0.00,,,0.00,meteohub,2013-10-28 12:35:00,
2013-10-28 08:36:00,42.6,36.0,30.23,WNW,298,0.0,3.0,77,0.00,,,0.00,meteohub,2013-10-28 12:36:00,
2013-10-28 08:40:00,43.2,36.5,30.24,WNW,298,1.0,3.0,77,0.00,,,0.00,meteohub,2013-10-28 12:40:00,
2013-10-28 08:41:00,43.2,36.5,30.23,WNW,298,0.0,3.0,77,0.00,,,0.00,meteohub,2013-10-28 12:41:00,
2013-10-28 08:42:00,43.2,36.5,30.23,WNW,298,0.0,3.0,77,0.00,,,0.00,meteohub,2013-10-28 12:42:00,
2013-10-28 08:45:00,43.5,36.9,30.24,WNW,298,0.0,2.0,77,0.00,,,0.00,meteohub,2013-10-28 12:45:00,
2013-10-28 08:46:00,43.5,36.9,30.24,WNW,298,0.0,2.0,77,0.00,,,0.00,meteohub,2013-10-28 12:46:00,
2013-10-28 08:47:00,43.5,36.9,30.24,WNW,298,1.0,2.0,77,0.00,,,0.00,meteohub,2013-10-28 12:47:00,
2013-10-28 08:50:00,43.9,37.2,30.24,WNW,298,2.0,2.0,77,0.00,,,0.00,meteohub,2013-10-28 12:50:00,
2013-10-28 08:51:00,44.1,37.4,30.24,WNW,298,0.0,2.0,77,0.00,,,0.00,meteohub,2013-10-28 12:51:00,
2013-10-28 08:52:00,44.1,37.4,30.24,WNW,298,1.0,2.0,77,0.00,,,0.00,meteohub,2013-10-28 12:52:00,
2013-10-28 08:53:00,44.1,37.0,30.24,WNW,298,0.0,2.0,76,0.00,,,0.00,meteohub,2013-10-28 12:53:00,
2013-10-28 08:56:00,44.2,37.2,30.24,WNW,298,1.0,3.0,76,0.00,,,0.00,meteohub,2013-10-28 12:56:00,
2013-10-28 08:57:00,44.2,37.2,30.24,WNW,298,2.0,3.0,76,0.00,,,0.00,meteohub,2013-10-28 12:57:00,
2013-10-28 08:58:00,44.2,37.2,30.24,WNW,298,0.0,3.0,76,0.00,,,0.00,meteohub,2013-10-28 12:58:00,
2013-10-28 08:59:00,44.4,37.4,30.24,WNW,298,0.0,3.0,76,0.00,,,0.00,meteohub,2013-10-28 12:59:00,
2013-10-28 09:01:00,44.8,37.8,30.24,WNW,298,0.0,3.0,76,0.00,,,0.00,meteohub,2013-10-28 13:01:00,
2013-10-28 09:02:00,44.8,37.8,30.24,WNW,298,0.0,3.0,76,0.00,,,0.00,meteohub,2013-10-28 13:02:00,
2013-10-28 09:03:00,45.0,37.6,30.24,WNW,298,1.0,3.0,75,0.00,,,0.00,meteohub,2013-10-28 13:03:00,
2013-10-28 09:04:00,45.0,37.6,30.24,WNW,298,1.0,3.0,75,0.00,,,0.00,meteohub,2013-10-28 13:04:00,
2013-10-28 09:05:00,45.0,37.6,30.24,WNW,298,2.0,3.0,75,0.00,,,0.00,meteohub,2013-10-28 13:05:00,
2013-10-28 09:06:00,45.1,37.8,30.24,WNW,298,3.0,3.0,75,0.00,,,0.00,meteohub,2013-10-28 13:06:00,
2013-10-28 09:07:00,45.1,37.8,30.24,WNW,298,1.0,3.0,75,0.00,,,0.00,meteohub,2013-10-28 13:07:00,
2013-10-28 09:08:00,45.3,37.9,30.24,WNW,298,0.0,3.0,75,0.00,,,0.00,meteohub,2013-10-28 13:08:00,
2013-10-28 09:09:00,45.3,37.9,30.24,WNW,298,0.0,3.0,75,0.00,,,0.00,meteohub,2013-10-28 13:09:00,
2013-10-28 09:10:00,45.3,37.9,30.24,WNW,298,1.0,3.0,75,0.00,,,0.00,meteohub,2013-10-28 13:10:00,
2013-10-28 09:12:00,45.7,38.3,30.24,WNW,298,1.0,3.0,75,0.00,,,0.00,meteohub,2013-10-28 13:12:00,
2013-10-28 09:13:00,45.9,38.3,30.24,WNW,298,0.0,3.0,75,0.00,,,0.00,meteohub,2013-10-28 13:13:00,
2013-10-28 09:14:00,45.9,38.1,30.24,WNW,298,1.0,3.0,74,0.00,,,0.00,meteohub,2013-10-28 13:14:00,
2013-10-28 09:15:00,46.0,38.3,30.24,WNW,298,1.0,3.0,74,0.00,,,0.00,meteohub,2013-10-28 13:15:00,
2013-10-28 09:18:00,46.0,38.3,30.24,WNW,298,2.0,3.0,74,0.00,,,0.00,meteohub,2013-10-28 13:18:00,
2013-10-28 09:19:00,46.2,38.5,30.24,WNW,298,1.0,3.0,74,0.00,,,0.00,meteohub,2013-10-28 13:19:00,
2013-10-28 09:23:00,46.8,38.5,30.25,WNW,298,0.0,3.0,73,0.00,,,0.00,meteohub,2013-10-28 13:23:00,
2013-10-28 09:24:00,46.8,38.5,30.24,WNW,298,0.0,3.0,73,0.00,,,0.00,meteohub,2013-10-28 13:24:00,
2013-10-28 09:25:00,46.9,38.7,30.24,WNW,298,1.0,3.0,73,0.00,,,0.00,meteohub,2013-10-28 13:25:00,
2013-10-28 09:28:00,47.3,38.7,30.25,West,281,1.0,3.0,72,0.00,,,0.00,meteohub,2013-10-28 13:28:00,
2013-10-28 09:29:00,47.5,38.8,30.25,West,281,1.0,3.0,72,0.00,,,0.00,meteohub,2013-10-28 13:29:00,
2013-10-28 09:30:00,47.5,38.8,30.25,West,281,3.0,3.0,72,0.00,,,0.00,meteohub,2013-10-28 13:30:00,
2013-10-28 09:31:00,47.7,39.0,30.25,WSW,243,2.0,3.0,72,0.00,,,0.00,meteohub,2013-10-28 13:31:00,
2013-10-28 09:34:00,47.8,38.5,30.25,WSW,243,2.0,3.0,70,0.00,,,0.00,meteohub,2013-10-28 13:34:00,
2013-10-28 09:35:00,47.8,38.5,30.25,WSW,243,1.0,3.0,70,0.00,,,0.00,meteohub,2013-10-28 13:35:00,
2013-10-28 09:36:00,47.8,38.5,30.25,WSW,243,2.0,3.0,70,0.00,,,0.00,meteohub,2013-10-28 13:36:00,
2013-10-28 09:39:00,48.2,38.5,30.25,WSW,243,2.0,3.0,69,0.00,,,0.00,meteohub,2013-10-28 13:39:00,
2013-10-28 09:40:00,48.2,38.5,30.25,WSW,243,2.0,3.0,69,0.00,,,0.00,meteohub,2013-10-28 13:40:00,
2013-10-28 09:41:00,48.2,38.5,30.25,WSW,243,1.0,3.0,69,0.00,,,0.00,meteohub,2013-10-28 13:41:00,
2013-10-28 09:42:00,48.4,38.7,30.25,WSW,243,1.0,3.0,69,0.00,,,0.00,meteohub,2013-10-28 13:42:00,
2013-10-28 09:43:00,48.4,38.7,30.25,WSW,243,0.0,3.0,69,0.00,,,0.00,meteohub,2013-10-28 13:43:00,
2013-10-28 09:45:00,48.7,38.7,30.25,WSW,243,0.0,3.0,68,0.00,,,0.00,meteohub,2013-10-28 13:45:00,
2013-10-28 09:47:00,48.7,38.7,30.25,WSW,243,1.0,3.0,68,0.00,,,0.00,meteohub,2013-10-28 13:47:00,
2013-10-28 09:49:00,49.1,38.3,30.25,WSW,243,2.0,3.0,66,0.00,,,0.00,meteohub,2013-10-28 13:49:00,
2013-10-28 09:50:00,49.3,37.9,30.25,WSW,243,1.0,3.0,65,0.00,,,0.00,meteohub,2013-10-28 13:50:00,
2013-10-28 09:51:00,49.3,37.9,30.24,WSW,243,3.0,3.0,65,0.00,,,0.00,meteohub,2013-10-28 13:51:00,
2013-10-28 09:52:00,49.5,37.4,30.24,WSW,243,2.0,3.0,63,0.00,,,0.00,meteohub,2013-10-28 13:52:00,
2013-10-28 09:55:00,49.5,36.5,30.25,WSW,250,2.0,3.0,61,0.00,,,0.00,meteohub,2013-10-28 13:55:00,
2013-10-28 09:56:00,49.5,36.1,30.24,WSW,250,2.0,3.0,60,0.00,,,0.00,meteohub,2013-10-28 13:56:00,
2013-10-28 09:57:00,49.6,36.3,30.25,WSW,250,2.0,3.0,60,0.00,,,0.00,meteohub,2013-10-28 13:57:00,
2013-10-28 10:00:00,49.8,36.9,30.25,WSW,250,1.0,3.0,61,0.00,,,0.00,meteohub,2013-10-28 14:00:00,
2013-10-28 10:01:00,49.8,36.9,30.25,WSW,250,0.0,3.0,61,0.00,,,0.00,meteohub,2013-10-28 14:01:00,
2013-10-28 10:02:00,50.0,37.0,30.25,WSW,250,0.0,3.0,61,0.00,,,0.00,meteohub,2013-10-28 14:02:00,
2013-10-28 10:03:00,50.2,37.2,30.25,WSW,250,1.0,3.0,61,0.00,,,0.00,meteohub,2013-10-28 14:03:00,
2013-10-28 10:05:00,50.4,37.4,30.25,WSW,250,2.0,3.0,61,0.00,,,0.00,meteohub,2013-10-28 14:05:00,
2013-10-28 10:06:00,50.4,37.0,30.25,WSW,250,1.0,3.0,60,0.00,,,0.00,meteohub,2013-10-28 14:06:00,
2013-10-28 10:07:00,50.5,37.2,30.25,WSW,250,0.0,3.0,60,0.00,,,0.00,meteohub,2013-10-28 14:07:00,
2013-10-28 10:08:00,50.5,37.2,30.25,WSW,250,1.0,3.0,60,0.00,,,0.00,meteohub,2013-10-28 14:08:00,
2013-10-28 10:11:00,50.7,37.4,30.24,WSW,250,1.0,3.0,60,0.00,,,0.00,meteohub,2013-10-28 14:11:00,
2013-10-28 10:12:00,50.9,37.6,30.25,WSW,250,2.0,3.0,60,0.00,,,0.00,meteohub,2013-10-28 14:12:00,
2013-10-28 10:15:00,51.3,37.4,30.25,WSW,250,0.0,3.0,59,0.00,,,0.00,meteohub,2013-10-28 14:15:00,
2013-10-28 10:16:00,51.4,37.9,30.25,WSW,250,0.0,2.0,60,0.00,,,0.00,meteohub,2013-10-28 14:16:00,
2013-10-28 10:17:00,51.4,37.9,30.25,WSW,250,2.0,2.0,60,0.00,,,0.00,meteohub,2013-10-28 14:17:00,
2013-10-28 10:20:00,52.0,38.1,30.25,WSW,250,1.0,2.0,59,0.00,,,0.00,meteohub,2013-10-28 14:20:00,
2013-10-28 10:21:00,52.2,38.3,30.24,WSW,250,1.0,2.0,59,0.00,,,0.00,meteohub,2013-10-28 14:21:00,
2013-10-28 10:22:00,52.2,38.3,30.24,WSW,250,0.0,2.0,59,0.00,,,0.00,meteohub,2013-10-28 14:22:00,
2013-10-28 10:23:00,52.3,38.5,30.24,WSW,250,0.0,2.0,59,0.00,,,0.00,meteohub,2013-10-28 14:23:00,
2013-10-28 10:25:00,52.7,38.3,30.25,WSW,250,1.0,2.0,58,0.00,,,0.00,meteohub,2013-10-28 14:25:00,
2013-10-28 10:27:00,52.7,37.9,30.25,WSW,250,0.0,2.0,57,0.00,,,0.00,meteohub,2013-10-28 14:27:00,
2013-10-28 10:28:00,52.9,38.1,30.24,WSW,250,0.0,2.0,57,0.00,,,0.00,meteohub,2013-10-28 14:28:00,
2013-10-28 10:31:00,53.2,37.9,30.24,WSW,250,2.0,2.0,56,0.00,,,0.00,meteohub,2013-10-28 14:31:00,
2013-10-28 10:32:00,53.2,37.0,30.24,WSW,250,1.0,2.0,54,0.00,,,0.00,meteohub,2013-10-28 14:32:00,
2013-10-28 10:33:00,53.4,36.7,30.24,WSW,250,2.0,2.0,53,0.00,,,0.00,meteohub,2013-10-28 14:33:00,
2013-10-28 10:37:00,53.6,36.0,30.24,WSW,250,3.0,3.0,51,0.00,,,0.00,meteohub,2013-10-28 14:37:00,
2013-10-28 10:38:00,53.8,35.6,30.24,WSW,250,2.0,3.0,50,0.00,,,0.00,meteohub,2013-10-28 14:38:00,
2013-10-28 10:39:00,53.8,35.6,30.24,WSW,250,0.0,3.0,50,0.00,,,0.00,meteohub,2013-10-28 14:39:00,
2013-10-28 10:42:00,53.8,35.1,30.24,WSW,250,3.0,4.0,49,0.00,,,0.00,meteohub,2013-10-28 14:42:00,
2013-10-28 10:43:00,53.8,35.1,30.25,WSW,250,4.0,4.0,49,0.00,,,0.00,meteohub,2013-10-28 14:43:00,
2013-10-28 10:44:00,53.8,34.5,30.25,WSW,250,4.0,4.0,48,0.00,,,0.00,meteohub,2013-10-28 14:44:00,
2013-10-28 10:45:00,53.8,34.5,30.25,WSW,250,1.0,4.0,48,0.00,,,0.00,meteohub,2013-10-28 14:45:00,
2013-10-28 10:48:00,54.0,34.7,30.25,WSW,250,1.0,4.0,48,0.00,,,0.00,meteohub,2013-10-28 14:48:00,
2013-10-28 10:49:00,54.1,34.9,30.25,WSW,250,3.0,4.0,48,0.00,,,0.00,meteohub,2013-10-28 14:49:00,
2013-10-28 10:51:00,54.1,33.8,30.25,WSW,248,3.0,5.0,46,0.00,,,0.00,meteohub,2013-10-28 14:51:00,
2013-10-28 10:53:00,54.1,34.3,30.25,SW,229,3.0,5.0,47,0.00,,,0.00,meteohub,2013-10-28 14:53:00,
2013-10-28 10:54:00,54.1,34.3,30.25,WSW,237,3.0,5.0,47,0.00,,,0.00,meteohub,2013-10-28 14:54:00,
2013-10-28 10:55:00,54.3,33.4,30.25,SW,233,2.0,5.0,45,0.00,,,0.00,meteohub,2013-10-28 14:55:00,
2013-10-28 10:56:00,54.3,33.4,30.25,SW,220,2.0,5.0,45,0.00,,,0.00,meteohub,2013-10-28 14:56:00,
2013-10-28 10:58:00,54.3,32.4,30.25,WSW,255,3.0,5.0,43,0.00,,,0.00,meteohub,2013-10-28 14:58:00,
2013-10-28 10:59:00,54.3,32.4,30.25,SW,232,2.0,5.0,43,0.00,,,0.00,meteohub,2013-10-28 14:59:00,
2013-10-28 11:01:00,54.5,31.8,30.25,WSW,254,5.0,6.0,42,0.00,,,0.00,meteohub,2013-10-28 15:01:00,
2013-10-28 11:02:00,54.5,31.8,30.25,WSW,239,3.0,6.0,42,0.00,,,0.00,meteohub,2013-10-28 15:02:00,
2013-10-28 11:03:00,54.7,32.5,30.25,SW,221,2.0,6.0,43,0.00,,,0.00,meteohub,2013-10-28 15:03:00,
2013-10-28 11:05:00,54.7,32.0,30.25,WSW,242,5.0,6.0,42,0.00,,,0.00,meteohub,2013-10-28 15:05:00,
2013-10-28 11:06:00,54.7,32.0,30.25,SW,219,2.0,6.0,42,0.00,,,0.00,meteohub,2013-10-28 15:06:00,
2013-10-28 11:07:00,54.7,32.0,30.25,WSW,240,2.0,6.0,42,0.00,,,0.00,meteohub,2013-10-28 15:07:00,
2013-10-28 11:08:00,54.9,32.2,30.25,SW,231,2.0,6.0,42,0.00,,,0.00,meteohub,2013-10-28 15:08:00,
2013-10-28 11:09:00,54.9,32.2,30.25,SW,236,3.0,6.0,42,0.00,,,0.00,meteohub,2013-10-28 15:09:00,
2013-10-28 11:10:00,54.9,32.2,30.25,WSW,252,2.0,6.0,42,0.00,,,0.00,meteohub,2013-10-28 15:10:00,
2013-10-28 11:11:00,54.9,32.2,30.25,WSW,254,4.0,6.0,42,0.00,,,0.00,meteohub,2013-10-28 15:11:00,
2013-10-28 11:12:00,54.9,32.2,30.25,WSW,250,4.0,6.0,42,0.00,,,0.00,meteohub,2013-10-28 15:12:00,
2013-10-28 11:13:00,54.9,32.7,30.25,West,265,4.0,6.0,43,0.00,,,0.00,meteohub,2013-10-28 15:13:00,
2013-10-28 11:14:00,54.9,32.7,30.24,WSW,239,3.0,6.0,43,0.00,,,0.00,meteohub,2013-10-28 15:14:00,
2013-10-28 11:16:00,54.9,32.7,30.25,WSW,255,4.0,6.0,43,0.00,,,0.00,meteohub,2013-10-28 15:16:00,
2013-10-28 11:17:00,54.9,32.7,30.25,WSW,255,4.0,6.0,43,0.00,,,0.00,meteohub,2013-10-28 15:17:00,
2013-10-28 11:18:00,54.9,33.4,30.25,WSW,257,5.0,6.0,44,0.00,,,0.00,meteohub,2013-10-28 15:18:00,
2013-10-28 11:20:00,55.0,34.2,30.24,West,262,2.0,6.0,45,0.00,,,0.00,meteohub,2013-10-28 15:20:00,
2013-10-28 11:22:00,55.0,34.7,30.24,WSW,249,3.0,6.0,46,0.00,,,0.00,meteohub,2013-10-28 15:22:00,
2013-10-28 11:23:00,55.0,34.7,30.24,West,278,4.0,6.0,46,0.00,,,0.00,meteohub,2013-10-28 15:23:00,
2013-10-28 11:25:00,55.2,34.9,30.24,SW,231,2.0,6.0,46,0.00,,,0.00,meteohub,2013-10-28 15:25:00,
2013-10-28 11:26:00,55.2,34.9,30.25,WSW,241,2.0,6.0,46,0.00,,,0.00,meteohub,2013-10-28 15:26:00,
2013-10-28 11:27:00,55.2,34.9,30.25,WSW,238,2.0,6.0,46,0.00,,,0.00,meteohub,2013-10-28 15:27:00,
2013-10-28 11:29:00,55.4,34.9,30.25,SW,236,0.0,6.0,46,0.00,,,0.00,meteohub,2013-10-28 15:29:00,
2013-10-28 11:30:00,55.6,35.6,30.25,SW,234,2.0,6.0,47,0.00,,,0.00,meteohub,2013-10-28 15:30:00,
2013-10-28 11:31:00,55.8,35.8,30.25,SW,234,3.0,6.0,47,0.00,,,0.00,meteohub,2013-10-28 15:31:00,
2013-10-28 11:34:00,55.9,35.4,30.25,SSW,211,2.0,6.0,46,0.00,,,0.00,meteohub,2013-10-28 15:34:00,
2013-10-28 11:35:00,56.1,35.6,30.25,SSW,210,2.0,6.0,46,0.00,,,0.00,meteohub,2013-10-28 15:35:00,
2013-10-28 11:36:00,56.1,35.6,30.25,SW,229,1.0,6.0,46,0.00,,,0.00,meteohub,2013-10-28 15:36:00,
2013-10-28 11:37:00,56.3,35.8,30.25,WSW,239,3.0,6.0,46,0.00,,,0.00,meteohub,2013-10-28 15:37:00,
2013-10-28 11:39:00,56.5,36.0,30.25,SSW,211,2.0,6.0,46,0.00,,,0.00,meteohub,2013-10-28 15:39:00,
2013-10-28 11:41:00,56.7,36.7,30.25,SSW,200,4.0,5.0,47,0.00,,,0.00,meteohub,2013-10-28 15:41:00,
2013-10-28 11:42:00,56.8,36.3,30.25,West,259,3.0,5.0,46,0.00,,,0.00,meteohub,2013-10-28 15:42:00,
2013-10-28 11:43:00,56.8,36.3,30.25,South,178,3.0,5.0,46,0.00,,,0.00,meteohub,2013-10-28 15:43:00,
2013-10-28 11:45:00,57.0,36.5,30.25,WSW,257,3.0,5.0,46,0.00,,,0.00,meteohub,2013-10-28 15:45:00,
2013-10-28 11:46:00,57.0,36.5,30.25,WSW,244,2.0,7.0,46,0.00,,,0.00,meteohub,2013-10-28 15:46:00,
2013-10-28 11:47:00,57.0,36.0,30.25,WSW,241,3.0,7.0,45,0.00,,,0.00,meteohub,2013-10-28 15:47:00,
2013-10-28 11:48:00,57.0,36.5,30.25,SSE,164,2.0,7.0,46,0.00,,,0.00,meteohub,2013-10-28 15:48:00,
2013-10-28 11:50:00,57.0,35.2,30.25,SE,139,2.0,7.0,44,0.00,,,0.00,meteohub,2013-10-28 15:50:00,
2013-10-28 11:51:00,57.0,35.2,30.25,South,190,2.0,7.0,44,0.00,,,0.00,meteohub,2013-10-28 15:51:00,
2013-10-28 11:52:00,57.0,36.0,30.24,SSW,201,4.0,7.0,45,0.00,,,0.00,meteohub,2013-10-28 15:52:00,
2013-10-28 11:53:00,57.0,36.0,30.25,SSE,161,2.0,7.0,45,0.00,,,0.00,meteohub,2013-10-28 15:53:00,
2013-10-28 11:55:00,57.0,36.5,30.25,SW,218,1.0,7.0,46,0.00,,,0.00,meteohub,2013-10-28 15:55:00,
2013-10-28 11:56:00,57.2,36.0,30.25,SSW,207,2.0,7.0,45,0.00,,,0.00,meteohub,2013-10-28 15:56:00,
2013-10-28 11:57:00,57.4,35.6,30.24,SSW,194,4.0,7.0,44,0.00,,,0.00,meteohub,2013-10-28 15:57:00,
2013-10-28 11:58:00,57.4,35.6,30.24,West,264,1.0,7.0,44,0.00,,,0.00,meteohub,2013-10-28 15:58:00,
2013-10-28 11:59:00,57.4,36.1,30.24,West,263,2.0,7.0,45,0.00,,,0.00,meteohub,2013-10-28 15:59:00,
2013-10-28 12:01:00,57.4,36.1,30.24,South,169,4.0,6.0,45,0.00,,,0.00,meteohub,2013-10-28 16:01:00,
2013-10-28 12:02:00,57.6,36.3,30.24,South,186,2.0,6.0,45,0.00,,,0.00,meteohub,2013-10-28 16:02:00,
2013-10-28 12:03:00,57.6,36.3,30.24,SW,230,2.0,6.0,45,0.00,,,0.00,meteohub,2013-10-28 16:03:00,
2013-10-28 12:04:00,57.6,36.9,30.24,WSW,237,1.0,6.0,46,0.00,,,0.00,meteohub,2013-10-28 16:04:00,
2013-10-28 12:05:00,57.6,36.9,30.24,WSW,244,1.0,6.0,46,0.00,,,0.00,meteohub,2013-10-28 16:05:00,
2013-10-28 12:06:00,57.4,36.7,30.24,SW,223,3.0,7.0,46,0.00,,,0.00,meteohub,2013-10-28 16:06:00,
2013-10-28 12:07:00,57.4,36.7,30.24,SSW,205,2.0,7.0,46,0.00,,,0.00,meteohub,2013-10-28 16:07:00,
2013-10-28 12:08:00,57.4,36.7,30.24,SW,231,2.0,7.0,46,0.00,,,0.00,meteohub,2013-10-28 16:08:00,
2013-10-28 12:09:00,57.4,37.4,30.24,SSW,196,3.0,7.0,47,0.00,,,0.00,meteohub,2013-10-28 16:09:00,
2013-10-28 12:11:00,57.6,37.4,30.24,SSW,207,4.0,7.0,47,0.00,,,0.00,meteohub,2013-10-28 16:11:00,
2013-10-28 12:12:00,57.6,36.9,30.24,SW,220,1.0,7.0,46,0.00,,,0.00,meteohub,2013-10-28 16:12:00,
2013-10-28 12:13:00,57.7,37.0,30.24,WSW,244,3.0,7.0,46,0.00,,,0.00,meteohub,2013-10-28 16:13:00,
2013-10-28 12:14:00,57.7,37.0,30.24,WSW,248,2.0,7.0,46,0.00,,,0.00,meteohub,2013-10-28 16:14:00,
2013-10-28 12:16:00,57.6,36.3,30.23,WSW,238,2.0,7.0,45,0.00,,,0.00,meteohub,2013-10-28 16:16:00,
2013-10-28 12:17:00,57.6,36.9,30.23,WSW,240,0.0,7.0,46,0.00,,,0.00,meteohub,2013-10-28 16:17:00,
2013-10-28 12:18:00,57.6,36.9,30.23,WSW,242,2.0,7.0,46,0.00,,,0.00,meteohub,2013-10-28 16:18:00,
2013-10-28 12:19:00,57.6,36.9,30.23,WSW,242,1.0,7.0,46,0.00,,,0.00,meteohub,2013-10-28 16:19:00,
2013-10-28 12:20:00,57.7,37.0,30.23,WSW,241,2.0,7.0,46,0.00,,,0.00,meteohub,2013-10-28 16:20:00,
2013-10-28 12:22:00,57.7,37.0,30.23,WSW,248,2.0,7.0,46,0.00,,,0.00,meteohub,2013-10-28 16:22:00,
2013-10-28 12:23:00,57.7,36.5,30.23,WSW,242,4.0,7.0,45,0.00,,,0.00,meteohub,2013-10-28 16:23:00,
2013-10-28 12:24:00,57.7,36.5,30.23,WSW,248,1.0,7.0,45,0.00,,,0.00,meteohub,2013-10-28 16:24:00,
2013-10-28 12:27:00,57.6,36.3,30.23,SSW,208,1.0,7.0,45,0.00,,,0.00,meteohub,2013-10-28 16:27:00,
2013-10-28 12:28:00,57.6,36.3,30.23,WSW,238,3.0,7.0,45,0.00,,,0.00,meteohub,2013-10-28 16:28:00,
2013-10-28 12:29:00,57.6,36.3,30.23,SW,232,4.0,7.0,45,0.00,,,0.00,meteohub,2013-10-28 16:29:00,
2013-10-28 12:30:00,57.6,36.3,30.23,WSW,246,5.0,8.0,45,0.00,,,0.00,meteohub,2013-10-28 16:30:00,
2013-10-28 12:33:00,57.6,35.8,30.23,WSW,247,4.0,8.0,44,0.00,,,0.00,meteohub,2013-10-28 16:33:00,
2013-10-28 12:34:00,57.6,35.8,30.23,SW,233,2.0,8.0,44,0.00,,,0.00,meteohub,2013-10-28 16:34:00,
2013-10-28 12:35:00,57.4,36.1,30.23,WSW,240,4.0,8.0,45,0.00,,,0.00,meteohub,2013-10-28 16:35:00,
2013-10-28 12:36:00,57.4,35.6,30.23,SW,226,1.0,8.0,44,0.00,,,0.00,meteohub,2013-10-28 16:36:00,
2013-10-28 12:38:00,57.6,36.3,30.22,SW,229,1.0,8.0,45,0.00,,,0.00,meteohub,2013-10-28 16:38:00,
2013-10-28 12:39:00,57.7,37.0,30.22,SSW,213,2.0,8.0,46,0.00,,,0.00,meteohub,2013-10-28 16:39:00,
2013-10-28 12:41:00,57.9,37.8,30.22,SW,232,3.0,8.0,47,0.00,,,0.00,meteohub,2013-10-28 16:41:00,
2013-10-28 12:42:00,58.1,37.9,30.22,SW,217,3.0,8.0,47,0.00,,,0.00,meteohub,2013-10-28 16:42:00,
2013-10-28 12:43:00,58.3,37.6,30.22,SW,230,2.0,8.0,46,0.00,,,0.00,meteohub,2013-10-28 16:43:00,
2013-10-28 12:46:00,58.5,37.8,30.22,SW,221,3.0,8.0,46,0.00,,,0.00,meteohub,2013-10-28 16:46:00,
2013-10-28 12:47:00,58.5,37.8,30.22,SW,228,2.0,8.0,46,0.00,,,0.00,meteohub,2013-10-28 16:47:00,
2013-10-28 12:48:00,58.5,37.8,30.22,SW,223,2.0,8.0,46,0.00,,,0.00,meteohub,2013-10-28 16:48:00,
2013-10-28 12:49:00,58.6,37.9,30.22,SW,223,2.0,8.0,46,0.00,,,0.00,meteohub,2013-10-28 16:49:00,
2013-10-28 12:51:00,58.8,38.7,30.22,SW,229,4.0,6.0,47,0.00,,,0.00,meteohub,2013-10-28 16:51:00,
2013-10-28 12:52:00,58.8,38.7,30.22,South,183,4.0,6.0,47,0.00,,,0.00,meteohub,2013-10-28 16:52:00,
2013-10-28 12:53:00,59.0,38.8,30.22,SSW,202,3.0,6.0,47,0.00,,,0.00,meteohub,2013-10-28 16:53:00,
2013-10-28 12:54:00,59.0,38.8,30.22,SSW,205,1.0,6.0,47,0.00,,,0.00,meteohub,2013-10-28 16:54:00,
2013-10-28 12:56:00,59.2,39.0,30.22,SW,231,2.0,8.0,47,0.00,,,0.00,meteohub,2013-10-28 16:56:00,
2013-10-28 12:57:00,59.2,39.0,30.22,WSW,238,4.0,8.0,47,0.00,,,0.00,meteohub,2013-10-28 16:57:00,
2013-10-28 12:58:00,59.2,38.5,30.22,SW,227,3.0,8.0,46,0.00,,,0.00,meteohub,2013-10-28 16:58:00,
2013-10-28 12:59:00,59.0,38.3,30.22,SSW,213,4.0,8.0,46,0.00,,,0.00,meteohub,2013-10-28 16:59:00,
2013-10-28 13:01:00,59.0,38.8,30.21,SSW,202,1.0,8.0,47,0.00,,,0.00,meteohub,2013-10-28 17:01:00,
2013-10-28 13:02:00,59.2,39.0,30.22,South,184,4.0,8.0,47,0.00,,,0.00,meteohub,2013-10-28 17:02:00,
2013-10-28 13:03:00,59.2,39.0,30.22,SSW,200,5.0,8.0,47,0.00,,,0.00,meteohub,2013-10-28 17:03:00,
2013-10-28 13:04:00,59.2,39.0,30.22,SE,128,1.0,8.0,47,0.00,,,0.00,meteohub,2013-10-28 17:04:00,
2013-10-28 13:06:00,59.4,39.2,30.21,SSW,211,5.0,8.0,47,0.00,,,0.00,meteohub,2013-10-28 17:06:00,
2013-10-28 13:07:00,59.4,38.7,30.21,SW,236,4.0,8.0,46,0.00,,,0.00,meteohub,2013-10-28 17:07:00,
2013-10-28 13:08:00,59.4,38.7,30.21,SW,223,3.0,8.0,46,0.00,,,0.00,meteohub,2013-10-28 17:08:00,
2013-10-28 13:09:00,59.4,37.9,30.21,WSW,246,3.0,8.0,45,0.00,,,0.00,meteohub,2013-10-28 17:09:00,
2013-10-28 13:11:00,59.2,39.0,30.21,SW,225,1.0,8.0,47,0.00,,,0.00,meteohub,2013-10-28 17:11:00,
2013-10-28 13:13:00,59.2,39.6,30.21,SW,234,2.0,8.0,48,0.00,,,0.00,meteohub,2013-10-28 17:13:00,
2013-10-28 13:14:00,59.2,39.6,30.21,SW,223,4.0,8.0,48,0.00,,,0.00,meteohub,2013-10-28 17:14:00,
2013-10-28 13:15:00,59.2,39.6,30.21,SW,229,2.0,8.0,48,0.00,,,0.00,meteohub,2013-10-28 17:15:00,
2013-10-28 13:17:00,59.2,40.1,30.21,South,183,2.0,9.0,49,0.00,,,0.00,meteohub,2013-10-28 17:17:00,
2013-10-28 13:18:00,59.2,41.0,30.21,SW,223,5.0,9.0,51,0.00,,,0.00,meteohub,2013-10-28 17:18:00,
2013-10-28 13:19:00,59.2,41.0,30.21,SW,232,4.0,9.0,51,0.00,,,0.00,meteohub,2013-10-28 17:19:00,
2013-10-28 13:20:00,59.2,41.5,30.21,SSW,193,5.0,9.0,52,0.00,,,0.00,meteohub,2013-10-28 17:20:00,
2013-10-28 13:22:00,58.8,42.3,30.21,SSW,201,4.0,9.0,54,0.00,,,0.00,meteohub,2013-10-28 17:22:00,
2013-10-28 13:23:00,58.8,42.6,30.21,WSW,254,8.0,9.0,55,0.00,,,0.00,meteohub,2013-10-28 17:23:00,
2013-10-28 13:24:00,58.6,42.4,30.21,SSW,192,5.0,9.0,55,0.00,,,0.00,meteohub,2013-10-28 17:24:00,
2013-10-28 13:25:00,58.6,42.4,30.21,South,182,2.0,10.0,55,0.00,,,0.00,meteohub,2013-10-28 17:25:00,
2013-10-28 13:27:00,58.5,42.8,30.21,SW,219,4.0,10.0,56,0.00,,,0.00,meteohub,2013-10-28 17:27:00,
2013-10-28 13:29:00,58.5,42.8,30.21,South,189,7.0,10.0,56,0.00,,,0.00,meteohub,2013-10-28 17:29:00,
2013-10-28 13:30:00,58.5,42.8,30.21,SW,234,5.0,10.0,56,0.00,,,0.00,meteohub,2013-10-28 17:30:00,
2013-10-28 13:31:00,58.3,42.6,30.21,SSE,148,3.0,10.0,56,0.00,,,0.00,meteohub,2013-10-28 17:31:00,
2013-10-28 13:33:00,58.3,43.5,30.20,South,187,7.0,10.0,58,0.00,,,0.00,meteohub,2013-10-28 17:33:00,
2013-10-28 13:34:00,58.3,43.5,30.20,SW,215,4.0,10.0,58,0.00,,,0.00,meteohub,2013-10-28 17:34:00,
2013-10-28 13:35:00,58.5,43.7,30.20,SSW,196,5.0,10.0,58,0.00,,,0.00,meteohub,2013-10-28 17:35:00,
2013-10-28 13:36:00,58.3,43.5,30.20,SSW,196,5.0,11.0,58,0.00,,,0.00,meteohub,2013-10-28 17:36:00,
2013-10-28 13:38:00,58.3,43.5,30.20,SSW,194,5.0,11.0,58,0.00,,,0.00,meteohub,2013-10-28 17:38:00,
2013-10-28 13:40:00,58.3,43.5,30.20,South,185,4.0,11.0,58,0.00,,,0.00,meteohub,2013-10-28 17:40:00,
2013-10-28 13:41:00,58.3,44.1,30.20,SW,214,6.0,11.0,59,0.00,,,0.00,meteohub,2013-10-28 17:41:00,
2013-10-28 13:42:00,58.3,44.1,30.20,South,177,3.0,11.0,59,0.00,,,0.00,meteohub,2013-10-28 17:42:00,
2013-10-28 13:43:00,58.3,44.1,30.20,SW,221,3.0,11.0,59,0.00,,,0.00,meteohub,2013-10-28 17:43:00,
2013-10-28 13:45:00,58.3,44.4,30.20,SW,224,2.0,11.0,60,0.00,,,0.00,meteohub,2013-10-28 17:45:00,
2013-10-28 13:47:00,58.3,44.4,30.20,SW,232,2.0,9.0,60,0.00,,,0.00,meteohub,2013-10-28 17:47:00,
2013-10-28 13:48:00,58.3,44.4,30.20,SSW,196,5.0,9.0,60,0.00,,,0.00,meteohub,2013-10-28 17:48:00,
2013-10-28 13:51:00,58.3,45.0,30.20,SSW,196,5.0,9.0,61,0.00,,,0.00,meteohub,2013-10-28 17:51:00,
2013-10-28 13:52:00,58.3,45.0,30.20,SSW,199,2.0,9.0,61,0.00,,,0.00,meteohub,2013-10-28 17:52:00,
2013-10-28 13:54:00,58.5,45.1,30.19,SW,219,3.0,9.0,61,0.00,,,0.00,meteohub,2013-10-28 17:54:00,
2013-10-28 13:56:00,58.5,44.6,30.19,SSW,209,5.0,9.0,60,0.00,,,0.00,meteohub,2013-10-28 17:56:00,
2013-10-28 13:57:00,58.5,45.1,30.19,SSW,213,5.0,9.0,61,0.00,,,0.00,meteohub,2013-10-28 17:57:00,
2013-10-28 13:59:00,58.3,45.3,30.19,SSW,202,6.0,9.0,62,0.00,,,0.00,meteohub,2013-10-28 17:59:00,
2013-10-28 14:00:00,58.3,45.0,30.19,South,186,8.0,9.0,61,0.00,,,0.00,meteohub,2013-10-28 18:00:00,
2013-10-28 14:01:00,58.3,45.0,30.19,SSW,211,4.0,9.0,61,0.00,,,0.00,meteohub,2013-10-28 18:01:00,
2013-10-28 14:02:00,58.3,45.0,30.19,WSW,253,3.0,9.0,61,0.00,,,0.00,meteohub,2013-10-28 18:02:00,
2013-10-28 14:03:00,58.3,45.0,30.19,SW,229,2.0,9.0,61,0.00,,,0.00,meteohub,2013-10-28 18:03:00,
2013-10-28 14:04:00,58.5,45.1,30.19,SW,220,7.0,9.0,61,0.00,,,0.00,meteohub,2013-10-28 18:04:00,
2013-10-28 14:06:00,58.5,45.1,30.19,SSW,192,5.0,9.0,61,0.00,,,0.00,meteohub,2013-10-28 18:06:00,
2013-10-28 14:07:00,58.6,45.3,30.19,South,172,8.0,9.0,61,0.00,,,0.00,meteohub,2013-10-28 18:07:00,
2013-10-28 14:08:00,58.6,45.3,30.19,SSW,199,6.0,9.0,61,0.00,,,0.00,meteohub,2013-10-28 18:08:00,
2013-10-28 14:10:00,58.6,44.8,30.19,SSW,192,5.0,9.0,60,0.00,,,0.00,meteohub,2013-10-28 18:10:00,
2013-10-28 14:11:00,58.6,44.8,30.19,SSW,212,9.0,9.0,60,0.00,,,0.00,meteohub,2013-10-28 18:11:00,
2013-10-28 14:12:00,58.6,45.3,30.19,SSW,207,4.0,9.0,61,0.00,,,0.00,meteohub,2013-10-28 18:12:00,
2013-10-28 14:13:00,58.6,45.3,30.19,SSW,199,6.0,9.0,61,0.00,,,0.00,meteohub,2013-10-28 18:13:00,
2013-10-28 14:14:00,58.6,45.3,30.19,SSW,200,6.0,9.0,61,0.00,,,0.00,meteohub,2013-10-28 18:14:00,
2013-10-28 14:15:00,58.5,45.5,30.19,SSW,202,6.0,9.0,62,0.00,,,0.00,meteohub,2013-10-28 18:15:00,
2013-10-28 14:16:00,58.5,45.5,30.19,SSW,198,4.0,9.0,62,0.00,,,0.00,meteohub,2013-10-28 18:16:00,
2013-10-28 14:17:00,58.5,45.5,30.19,South,174,3.0,9.0,62,0.00,,,0.00,meteohub,2013-10-28 18:17:00,
2013-10-28 14:19:00,58.5,45.9,30.19,SSW,213,6.0,9.0,63,0.00,,,0.00,meteohub,2013-10-28 18:19:00,
2013-10-28 14:20:00,58.5,45.5,30.19,SSW,192,6.0,9.0,62,0.00,,,0.00,meteohub,2013-10-28 18:20:00,
2013-10-28 14:21:00,58.3,45.3,30.19,SW,217,4.0,9.0,62,0.00,,,0.00,meteohub,2013-10-28 18:21:00,
2013-10-28 14:22:00,58.3,45.7,30.19,SW,227,6.0,9.0,63,0.00,,,0.00,meteohub,2013-10-28 18:22:00,
2013-10-28 14:25:00,58.5,46.4,30.19,SSW,213,3.0,9.0,64,0.00,,,0.00,meteohub,2013-10-28 18:25:00,
2013-10-28 14:26:00,58.5,46.4,30.19,South,188,1.0,9.0,64,0.00,,,0.00,meteohub,2013-10-28 18:26:00,
2013-10-28 14:27:00,58.5,45.9,30.19,SSW,204,4.0,9.0,63,0.00,,,0.00,meteohub,2013-10-28 18:27:00,
2013-10-28 14:30:00,58.5,45.9,30.19,SSW,201,5.0,9.0,63,0.00,,,0.00,meteohub,2013-10-28 18:30:00,
2013-10-28 14:31:00,58.5,45.9,30.19,SSE,167,1.0,9.0,63,0.00,,,0.00,meteohub,2013-10-28 18:31:00,
2013-10-28 14:32:00,58.5,45.9,30.19,South,188,3.0,9.0,63,0.00,,,0.00,meteohub,2013-10-28 18:32:00,
2013-10-28 14:33:00,58.6,46.6,30.19,SW,216,7.0,9.0,64,0.00,,,0.00,meteohub,2013-10-28 18:33:00,
2013-10-28 14:35:00,58.6,46.6,30.19,SSW,192,3.0,9.0,64,0.00,,,0.00,meteohub,2013-10-28 18:35:00,
2013-10-28 14:36:00,58.6,46.6,30.19,WSW,257,7.0,9.0,64,0.00,,,0.00,meteohub,2013-10-28 18:36:00,
2013-10-28 14:37:00,58.6,46.6,30.19,SW,218,5.0,9.0,64,0.00,,,0.00,meteohub,2013-10-28 18:37:00,
2013-10-28 14:38:00,58.6,46.6,30.19,South,180,5.0,9.0,64,0.00,,,0.00,meteohub,2013-10-28 18:38:00,
2013-10-28 14:40:00,58.6,46.6,30.19,SSE,156,2.0,9.0,64,0.00,,,0.00,meteohub,2013-10-28 18:40:00,
2013-10-28 14:41:00,58.6,46.9,30.19,SSW,213,4.0,9.0,65,0.00,,,0.00,meteohub,2013-10-28 18:41:00,
2013-10-28 14:42:00,58.6,46.9,30.19,South,179,1.0,9.0,65,0.00,,,0.00,meteohub,2013-10-28 18:42:00,
2013-10-28 14:44:00,58.6,46.9,30.19,SSE,161,6.0,9.0,65,0.00,,,0.00,meteohub,2013-10-28 18:44:00,
2013-10-28 14:45:00,58.6,46.9,30.19,WSW,238,6.0,9.0,65,0.00,,,0.00,meteohub,2013-10-28 18:45:00,
2013-10-28 14:46:00,58.6,46.9,30.19,South,183,2.0,8.0,65,0.00,,,0.00,meteohub,2013-10-28 18:46:00,
2013-10-28 14:47:00,58.8,47.1,30.19,SSW,206,5.0,8.0,65,0.00,,,0.00,meteohub,2013-10-28 18:47:00,
2013-10-28 14:48:00,58.8,47.1,30.19,SSE,157,3.0,8.0,65,0.00,,,0.00,meteohub,2013-10-28 18:48:00,
2013-10-28 14:49:00,58.8,47.1,30.19,SSW,194,4.0,8.0,65,0.00,,,0.00,meteohub,2013-10-28 18:49:00,
2013-10-28 14:51:00,58.8,47.1,30.19,SSW,211,5.0,9.0,65,0.00,,,0.00,meteohub,2013-10-28 18:51:00,
2013-10-28 14:52:00,59.0,47.3,30.18,South,169,5.0,9.0,65,0.00,,,0.00,meteohub,2013-10-28 18:52:00,
2013-10-28 14:54:00,59.0,47.3,30.18,SSW,202,8.0,9.0,65,0.00,,,0.00,meteohub,2013-10-28 18:54:00,
2013-10-28 14:57:00,59.2,47.5,30.18,SW,216,4.0,9.0,65,0.00,,,0.00,meteohub,2013-10-28 18:57:00,
2013-10-28 14:58:00,59.2,47.8,30.18,SSW,195,3.0,9.0,66,0.00,,,0.00,meteohub,2013-10-28 18:58:00,
2013-10-28 14:59:00,59.2,47.8,30.18,SSW,208,6.0,9.0,66,0.00,,,0.00,meteohub,2013-10-28 18:59:00,
2013-10-28 15:02:00,59.4,48.0,30.18,South,180,5.0,9.0,66,0.00,,,0.00,meteohub,2013-10-28 19:02:00,
2013-10-28 15:03:00,59.4,48.0,30.18,SW,214,4.0,9.0,66,0.00,,,0.00,meteohub,2013-10-28 19:03:00,
2013-10-28 15:04:00,59.4,48.0,30.18,South,190,3.0,9.0,66,0.00,,,0.00,meteohub,2013-10-28 19:04:00,
2013-10-28 15:05:00,59.5,48.2,30.18,South,183,2.0,9.0,66,0.00,,,0.00,meteohub,2013-10-28 19:05:00,
2013-10-28 15:07:00,59.7,48.0,30.18,SSW,213,7.0,9.0,65,0.00,,,0.00,meteohub,2013-10-28 19:07:00,
2013-10-28 15:08:00,59.7,48.0,30.18,SSW,209,5.0,9.0,65,0.00,,,0.00,meteohub,2013-10-28 19:08:00,
2013-10-28 15:09:00,59.7,48.0,30.18,SW,215,5.0,9.0,65,0.00,,,0.00,meteohub,2013-10-28 19:09:00,
2013-10-28 15:10:00,59.7,47.5,30.18,South,189,4.0,9.0,64,0.00,,,0.00,meteohub,2013-10-28 19:10:00,
2013-10-28 15:11:00,59.7,47.5,30.18,SSE,161,2.0,9.0,64,0.00,,,0.00,meteohub,2013-10-28 19:11:00,
2013-10-28 15:12:00,59.7,48.0,30.18,South,173,5.0,9.0,65,0.00,,,0.00,meteohub,2013-10-28 19:12:00,
2013-10-28 15:13:00,59.7,47.5,30.18,SSW,213,3.0,9.0,64,0.00,,,0.00,meteohub,2013-10-28 19:13:00,
2013-10-28 15:14:00,59.5,47.3,30.18,SSW,205,3.0,9.0,64,0.00,,,0.00,meteohub,2013-10-28 19:14:00,
2013-10-28 15:15:00,59.5,47.3,30.18,SSW,206,8.0,9.0,64,0.00,,,0.00,meteohub,2013-10-28 19:15:00,
2013-10-28 15:16:00,59.5,47.3,30.18,SSW,195,6.0,9.0,64,0.00,,,0.00,meteohub,2013-10-28 19:16:00,
2013-10-28 15:18:00,59.5,47.8,30.18,South,191,3.0,9.0,65,0.00,,,0.00,meteohub,2013-10-28 19:18:00,
2013-10-28 15:19:00,59.5,47.8,30.18,SSE,155,2.0,9.0,65,0.00,,,0.00,meteohub,2013-10-28 19:19:00,
2013-10-28 15:20:00,59.5,47.8,30.19,SSW,200,3.0,10.0,65,0.00,,,0.00,meteohub,2013-10-28 19:20:00,
2013-10-28 15:21:00,59.5,47.8,30.19,SSW,196,9.0,10.0,65,0.00,,,0.00,meteohub,2013-10-28 19:21:00,
2013-10-28 15:23:00,59.5,48.2,30.18,SSW,193,4.0,10.0,66,0.00,,,0.00,meteohub,2013-10-28 19:23:00,
2013-10-28 15:24:00,59.5,48.2,30.18,SSW,202,2.0,10.0,66,0.00,,,0.00,meteohub,2013-10-28 19:24:00,
2013-10-28 15:25:00,59.5,48.2,30.18,SSW,192,8.0,10.0,66,0.00,,,0.00,meteohub,2013-10-28 19:25:00,
2013-10-28 15:26:00,59.5,47.8,30.18,SSW,211,7.0,10.0,65,0.00,,,0.00,meteohub,2013-10-28 19:26:00,
2013-10-28 15:29:00,59.7,48.4,30.19,SSW,194,7.0,10.0,66,0.00,,,0.00,meteohub,2013-10-28 19:29:00,
2013-10-28 15:30:00,59.7,48.4,30.19,SSW,198,8.0,10.0,66,0.00,,,0.00,meteohub,2013-10-28 19:30:00,
2013-10-28 15:31:00,59.7,48.4,30.18,SW,219,7.0,10.0,66,0.00,,,0.00,meteohub,2013-10-28 19:31:00,
2013-10-28 15:32:00,59.7,48.4,30.18,SSW,207,5.0,10.0,66,0.00,,,0.00,meteohub,2013-10-28 19:32:00,
2013-10-28 15:34:00,59.7,48.4,30.18,SSW,210,6.0,10.0,66,0.00,,,0.00,meteohub,2013-10-28 19:34:00,
2013-10-28 15:35:00,59.7,48.4,30.19,SSW,196,7.0,10.0,66,0.00,,,0.00,meteohub,2013-10-28 19:35:00,
2013-10-28 15:36:00,59.7,48.0,30.19,SSW,210,3.0,10.0,65,0.00,,,0.00,meteohub,2013-10-28 19:36:00,
2013-10-28 15:37:00,59.7,48.0,30.19,South,186,8.0,10.0,65,0.00,,,0.00,meteohub,2013-10-28 19:37:00,
2013-10-28 15:39:00,59.7,48.4,30.19,SSW,199,5.0,10.0,66,0.00,,,0.00,meteohub,2013-10-28 19:39:00,
2013-10-28 15:40:00,59.7,48.4,30.19,SW,221,4.0,11.0,66,0.00,,,0.00,meteohub,2013-10-28 19:40:00,
2013-10-28 15:41:00,59.7,48.7,30.19,SW,217,7.0,11.0,67,0.00,,,0.00,meteohub,2013-10-28 19:41:00,
2013-10-28 15:42:00,59.7,48.4,30.19,SSE,150,4.0,11.0,66,0.00,,,0.00,meteohub,2013-10-28 19:42:00,
2013-10-28 15:43:00,59.7,48.7,30.19,SSW,194,3.0,11.0,67,0.00,,,0.00,meteohub,2013-10-28 19:43:00,
2013-10-28 15:44:00,59.7,48.7,30.19,SSW,195,7.0,11.0,67,0.00,,,0.00,meteohub,2013-10-28 19:44:00,
2013-10-28 15:45:00,59.7,48.7,30.19,SSW,193,6.0,11.0,67,0.00,,,0.00,meteohub,2013-10-28 19:45:00,
2013-10-28 15:46:00,59.7,48.7,30.19,SW,219,3.0,11.0,67,0.00,,,0.00,meteohub,2013-10-28 19:46:00,
2013-10-28 15:47:00,59.7,48.7,30.19,WSW,255,7.0,11.0,67,0.00,,,0.00,meteohub,2013-10-28 19:47:00,
2013-10-28 15:49:00,59.7,48.7,30.19,SSW,196,4.0,11.0,67,0.00,,,0.00,meteohub,2013-10-28 19:49:00,
2013-10-28 15:50:00,59.7,48.7,30.18,South,182,5.0,11.0,67,0.00,,,0.00,meteohub,2013-10-28 19:50:00,
2013-10-28 15:51:00,59.7,48.7,30.19,SSE,168,5.0,11.0,67,0.00,,,0.00,meteohub,2013-10-28 19:51:00,
2013-10-28 15:52:00,59.5,48.6,30.19,SSW,198,7.0,11.0,67,0.00,,,0.00,meteohub,2013-10-28 19:52:00,
2013-10-28 15:54:00,59.5,48.6,30.19,SW,231,2.0,11.0,67,0.00,,,0.00,meteohub,2013-10-28 19:54:00,
2013-10-28 15:55:00,59.4,48.4,30.19,SSW,206,6.0,11.0,67,0.00,,,0.00,meteohub,2013-10-28 19:55:00,
2013-10-28 15:56:00,59.4,48.4,30.19,SSW,202,6.0,10.0,67,0.00,,,0.00,meteohub,2013-10-28 19:56:00,
2013-10-28 15:57:00,59.5,48.9,30.19,SW,226,10.0,10.0,68,0.00,,,0.00,meteohub,2013-10-28 19:57:00,
2013-10-28 15:59:00,59.5,48.9,30.19,South,188,5.0,10.0,68,0.00,,,0.00,meteohub,2013-10-28 19:59:00,
2013-10-28 16:00:00,59.5,48.9,30.19,SW,225,5.0,10.0,68,0.00,,,0.00,meteohub,2013-10-28 20:00:00,
2013-10-28 16:01:00,59.5,48.9,30.19,South,190,7.0,10.0,68,0.00,,,0.00,meteohub,2013-10-28 20:01:00,
2013-10-28 16:02:00,59.5,48.9,30.19,WSW,242,4.0,10.0,68,0.00,,,0.00,meteohub,2013-10-28 20:02:00,
2013-10-28 16:03:00,59.5,48.9,30.19,South,184,4.0,10.0,68,0.00,,,0.00,meteohub,2013-10-28 20:03:00,
2013-10-28 16:05:00,59.7,49.1,30.19,SSW,197,7.0,10.0,68,0.00,,,0.00,meteohub,2013-10-28 20:05:00,
2013-10-28 16:06:00,59.7,49.1,30.19,SSW,207,5.0,11.0,68,0.00,,,0.00,meteohub,2013-10-28 20:06:00,
2013-10-28 16:07:00,59.7,49.1,30.19,SSW,192,5.0,11.0,68,0.00,,,0.00,meteohub,2013-10-28 20:07:00,
2013-10-28 16:08:00,59.7,49.1,30.19,South,190,5.0,11.0,68,0.00,,,0.00,meteohub,2013-10-28 20:08:00,
2013-10-28 16:09:00,59.7,49.1,30.19,SW,222,7.0,11.0,68,0.00,,,0.00,meteohub,2013-10-28 20:09:00,
2013-10-28 16:10:00,59.7,49.1,30.18,SSW,196,6.0,11.0,68,0.00,,,0.00,meteohub,2013-10-28 20:10:00,
2013-10-28 16:12:00,59.7,49.1,30.19,South,178,7.0,11.0,68,0.00,,,0.00,meteohub,2013-10-28 20:12:00,
2013-10-28 16:13:00,59.7,49.1,30.18,SSW,200,7.0,11.0,68,0.00,,,0.00,meteohub,2013-10-28 20:13:00,
2013-10-28 16:14:00,59.7,49.1,30.18,SW,225,5.0,11.0,68,0.00,,,0.00,meteohub,2013-10-28 20:14:00,
2013-10-28 16:15:00,59.7,49.1,30.18,South,175,8.0,11.0,68,0.00,,,0.00,meteohub,2013-10-28 20:15:00,
2013-10-28 16:17:00,59.9,49.6,30.18,SSW,210,6.0,11.0,69,0.00,,,0.00,meteohub,2013-10-28 20:17:00,
2013-10-28 16:18:00,60.1,49.8,30.18,SSW,199,5.0,11.0,69,0.00,,,0.00,meteohub,2013-10-28 20:18:00,
2013-10-28 16:20:00,60.1,49.8,30.18,SSW,213,4.0,11.0,69,0.00,,,0.00,meteohub,2013-10-28 20:20:00,
2013-10-28 16:22:00,60.1,49.8,30.18,South,185,3.0,10.0,69,0.00,,,0.00,meteohub,2013-10-28 20:22:00,
2013-10-28 16:23:00,60.1,49.8,30.18,South,190,5.0,10.0,69,0.00,,,0.00,meteohub,2013-10-28 20:23:00,
2013-10-28 16:25:00,60.1,49.8,30.18,SSW,205,2.0,10.0,69,0.00,,,0.00,meteohub,2013-10-28 20:25:00,
2013-10-28 16:26:00,60.1,50.2,30.18,SSE,161,4.0,10.0,70,0.00,,,0.00,meteohub,2013-10-28 20:26:00,
2013-10-28 16:27:00,60.1,50.2,30.18,South,182,6.0,10.0,70,0.00,,,0.00,meteohub,2013-10-28 20:27:00,
2013-10-28 16:28:00,60.1,49.8,30.18,SSE,161,5.0,10.0,69,0.00,,,0.00,meteohub,2013-10-28 20:28:00,
2013-10-28 16:29:00,60.1,50.2,30.18,SSW,206,8.0,10.0,70,0.00,,,0.00,meteohub,2013-10-28 20:29:00,
2013-10-28 16:30:00,60.1,50.2,30.18,WSW,239,5.0,10.0,70,0.00,,,0.00,meteohub,2013-10-28 20:30:00,
2013-10-28 16:31:00,60.1,50.2,30.18,SSW,211,6.0,10.0,70,0.00,,,0.00,meteohub,2013-10-28 20:31:00,
2013-10-28 16:32:00,59.9,50.2,30.18,SSW,198,5.0,10.0,70,0.00,,,0.00,meteohub,2013-10-28 20:32:00,
2013-10-28 16:33:00,59.9,50.2,30.18,SSW,197,7.0,10.0,70,0.00,,,0.00,meteohub,2013-10-28 20:33:00,
2013-10-28 16:34:00,59.9,50.2,30.18,SSW,198,5.0,10.0,70,0.00,,,0.00,meteohub,2013-10-28 20:34:00,
2013-10-28 16:37:00,59.7,50.0,30.18,SSW,202,4.0,12.0,70,0.00,,,0.00,meteohub,2013-10-28 20:37:00,
2013-10-28 16:38:00,59.7,50.0,30.18,SSW,203,7.0,12.0,70,0.00,,,0.00,meteohub,2013-10-28 20:38:00,
2013-10-28 16:39:00,59.5,49.8,30.19,SW,219,2.0,12.0,70,0.00,,,0.00,meteohub,2013-10-28 20:39:00,
2013-10-28 16:40:00,59.5,49.8,30.18,SSW,196,3.0,12.0,70,0.00,,,0.00,meteohub,2013-10-28 20:40:00,
2013-10-28 16:42:00,59.5,50.2,30.19,South,191,6.0,12.0,71,0.00,,,0.00,meteohub,2013-10-28 20:42:00,
2013-10-28 16:43:00,59.5,50.2,30.18,South,191,4.0,12.0,71,0.00,,,0.00,meteohub,2013-10-28 20:43:00,
2013-10-28 16:44:00,59.5,50.2,30.18,South,175,7.0,12.0,71,0.00,,,0.00,meteohub,2013-10-28 20:44:00,
2013-10-28 16:45:00,59.5,50.2,30.18,SW,218,6.0,12.0,71,0.00,,,0.00,meteohub,2013-10-28 20:45:00,
2013-10-28 16:47:00,59.5,50.2,30.18,SW,216,9.0,12.0,71,0.00,,,0.00,meteohub,2013-10-28 20:47:00,
2013-10-28 16:48:00,59.5,50.2,30.18,South,176,7.0,12.0,71,0.00,,,0.00,meteohub,2013-10-28 20:48:00,
2013-10-28 16:49:00,59.5,50.5,30.18,SSW,203,4.0,12.0,72,0.00,,,0.00,meteohub,2013-10-28 20:49:00,
2013-10-28 16:50:00,59.5,50.5,30.18,SSW,211,5.0,12.0,72,0.00,,,0.00,meteohub,2013-10-28 20:50:00,
2013-10-28 16:51:00,59.5,50.5,30.18,SSW,210,5.0,10.0,72,0.00,,,0.00,meteohub,2013-10-28 20:51:00,
2013-10-28 16:52:00,59.5,50.2,30.18,SW,221,7.0,10.0,71,0.00,,,0.00,meteohub,2013-10-28 20:52:00,
2013-10-28 16:53:00,59.4,50.0,30.19,SW,223,7.0,10.0,71,0.00,,,0.00,meteohub,2013-10-28 20:53:00,
2013-10-28 16:55:00,59.4,50.4,30.18,SSW,196,2.0,10.0,72,0.00,,,0.00,meteohub,2013-10-28 20:55:00,
2013-10-28 16:57:00,59.4,50.4,30.19,SW,222,5.0,10.0,72,0.00,,,0.00,meteohub,2013-10-28 20:57:00,
2013-10-28 16:58:00,59.2,50.2,30.18,SSW,210,3.0,10.0,72,0.00,,,0.00,meteohub,2013-10-28 20:58:00,
2013-10-28 16:59:00,59.2,50.2,30.18,South,169,5.0,10.0,72,0.00,,,0.00,meteohub,2013-10-28 20:59:00,
2013-10-28 17:00:00,59.2,50.2,30.19,SSW,199,5.0,10.0,72,0.00,,,0.00,meteohub,2013-10-28 21:00:00,
2013-10-28 17:01:00,59.2,50.2,30.19,SSE,155,6.0,10.0,72,0.00,,,0.00,meteohub,2013-10-28 21:01:00,
2013-10-28 17:02:00,59.2,50.2,30.19,WSW,240,2.0,10.0,72,0.00,,,0.00,meteohub,2013-10-28 21:02:00,
2013-10-28 17:03:00,59.2,50.2,30.19,SSE,167,5.0,10.0,72,0.00,,,0.00,meteohub,2013-10-28 21:03:00,
2013-10-28 17:05:00,59.4,50.7,30.19,SSW,202,4.0,10.0,73,0.00,,,0.00,meteohub,2013-10-28 21:05:00,
2013-10-28 17:06:00,59.4,50.7,30.19,SW,217,3.0,10.0,73,0.00,,,0.00,meteohub,2013-10-28 21:06:00,
2013-10-28 17:07:00,59.4,50.7,30.19,SW,223,2.0,10.0,73,0.00,,,0.00,meteohub,2013-10-28 21:07:00,
2013-10-28 17:08:00,59.4,50.7,30.19,South,176,4.0,10.0,73,0.00,,,0.00,meteohub,2013-10-28 21:08:00,
2013-10-28 17:09:00,59.4,50.7,30.19,SSW,200,4.0,10.0,73,0.00,,,0.00,meteohub,2013-10-28 21:09:00,
2013-10-28 17:10:00,59.4,50.7,30.19,South,179,6.0,10.0,73,0.00,,,0.00,meteohub,2013-10-28 21:10:00,
2013-10-28 17:11:00,59.4,50.7,30.19,SSW,205,2.0,10.0,73,0.00,,,0.00,meteohub,2013-10-28 21:11:00,
2013-10-28 17:12:00,59.4,50.7,30.19,South,185,5.0,10.0,73,0.00,,,0.00,meteohub,2013-10-28 21:12:00,
2013-10-28 17:14:00,59.2,50.5,30.19,WSW,247,3.0,10.0,73,0.00,,,0.00,meteohub,2013-10-28 21:14:00,
2013-10-28 17:15:00,59.2,50.5,30.19,WSW,240,5.0,7.0,73,0.00,,,0.00,meteohub,2013-10-28 21:15:00,
2013-10-28 17:16:00,59.2,50.9,30.19,SW,219,2.0,7.0,74,0.00,,,0.00,meteohub,2013-10-28 21:16:00,
2013-10-28 17:17:00,59.2,50.9,30.19,SSW,198,3.0,7.0,74,0.00,,,0.00,meteohub,2013-10-28 21:17:00,
2013-10-28 17:18:00,59.2,50.9,30.19,SW,215,3.0,7.0,74,0.00,,,0.00,meteohub,2013-10-28 21:18:00,
2013-10-28 17:21:00,59.2,50.9,30.19,SW,236,4.0,8.0,74,0.00,,,0.00,meteohub,2013-10-28 21:21:00,
2013-10-28 17:22:00,59.2,50.9,30.19,South,188,4.0,8.0,74,0.00,,,0.00,meteohub,2013-10-28 21:22:00,
2013-10-28 17:23:00,59.2,50.9,30.19,South,188,3.0,8.0,74,0.00,,,0.00,meteohub,2013-10-28 21:23:00,
2013-10-28 17:26:00,59.2,50.9,30.19,SSW,201,2.0,8.0,74,0.00,,,0.00,meteohub,2013-10-28 21:26:00,
2013-10-28 17:27:00,59.2,50.9,30.19,SW,215,3.0,8.0,74,0.00,,,0.00,meteohub,2013-10-28 21:27:00,
2013-10-28 17:31:00,59.2,50.9,30.19,SSW,205,4.0,7.0,74,0.00,,,0.00,meteohub,2013-10-28 21:31:00,
2013-10-28 17:32:00,59.2,50.9,30.19,SSW,198,1.0,7.0,74,0.00,,,0.00,meteohub,2013-10-28 21:32:00,
2013-10-28 17:33:00,59.2,50.9,30.19,West,260,1.0,7.0,74,0.00,,,0.00,meteohub,2013-10-28 21:33:00,
2013-10-28 17:36:00,59.0,50.7,30.19,South,178,1.0,7.0,74,0.00,,,0.00,meteohub,2013-10-28 21:36:00,
2013-10-28 17:37:00,59.0,51.1,30.19,SSW,212,4.0,7.0,75,0.00,,,0.00,meteohub,2013-10-28 21:37:00,
2013-10-28 17:38:00,59.0,51.1,30.19,SW,224,6.0,7.0,75,0.00,,,0.00,meteohub,2013-10-28 21:38:00,
2013-10-28 17:39:00,58.8,50.9,30.19,SW,226,1.0,7.0,75,0.00,,,0.00,meteohub,2013-10-28 21:39:00,
2013-10-28 17:41:00,58.8,50.9,30.19,SSW,200,4.0,7.0,75,0.00,,,0.00,meteohub,2013-10-28 21:41:00,
2013-10-28 17:42:00,58.8,50.9,30.19,SW,219,2.0,7.0,75,0.00,,,0.00,meteohub,2013-10-28 21:42:00,
2013-10-28 17:43:00,58.8,50.9,30.19,SSW,195,5.0,7.0,75,0.00,,,0.00,meteohub,2013-10-28 21:43:00,
2013-10-28 17:45:00,58.6,50.7,30.19,SW,223,2.0,7.0,75,0.00,,,0.00,meteohub,2013-10-28 21:45:00,
2013-10-28 17:46:00,58.6,50.7,30.19,SW,215,4.0,7.0,75,0.00,,,0.00,meteohub,2013-10-28 21:46:00,
2013-10-28 17:47:00,58.6,50.7,30.19,SSW,203,5.0,7.0,75,0.00,,,0.00,meteohub,2013-10-28 21:47:00,
2013-10-28 17:48:00,58.6,50.7,30.19,SSW,207,1.0,7.0,75,0.00,,,0.00,meteohub,2013-10-28 21:48:00,
2013-10-28 17:50:00,58.6,51.1,30.19,SW,217,1.0,6.0,76,0.00,,,0.00,meteohub,2013-10-28 21:50:00,
2013-10-28 17:52:00,58.5,50.9,30.19,SW,215,3.0,6.0,76,0.00,,,0.00,meteohub,2013-10-28 21:52:00,
2013-10-28 17:53:00,58.5,50.9,30.19,SW,217,2.0,6.0,76,0.00,,,0.00,meteohub,2013-10-28 21:53:00,
2013-10-28 17:54:00,58.5,50.9,30.19,SSW,195,7.0,7.0,76,0.00,,,0.00,meteohub,2013-10-28 21:54:00,
2013-10-28 17:55:00,58.5,50.9,30.20,SSW,213,3.0,6.0,76,0.00,,,0.00,meteohub,2013-10-28 21:55:00,
2013-10-28 17:57:00,58.5,50.9,30.20,SW,220,3.0,6.0,76,0.00,,,0.00,meteohub,2013-10-28 21:57:00,
2013-10-28 17:58:00,58.5,50.9,30.20,SW,220,3.0,6.0,76,0.00,,,0.00,meteohub,2013-10-28 21:58:00,
2013-10-28 17:59:00,58.5,50.9,30.20,South,188,1.0,6.0,76,0.00,,,0.00,meteohub,2013-10-28 21:59:00,
2013-10-28 18:00:00,58.3,50.7,30.20,WSW,247,3.0,6.0,76,0.00,,,0.00,meteohub,2013-10-28 22:00:00,
2013-10-28 18:03:00,58.3,50.7,30.20,SW,234,2.0,7.0,76,0.00,,,0.00,meteohub,2013-10-28 22:03:00,
2013-10-28 18:04:00,58.3,51.1,30.20,SSW,195,1.0,7.0,77,0.00,,,0.00,meteohub,2013-10-28 22:04:00,
2013-10-28 18:05:00,58.3,51.1,30.20,SW,229,2.0,7.0,77,0.00,,,0.00,meteohub,2013-10-28 22:05:00,
2013-10-28 18:08:00,58.3,51.1,30.20,SW,219,1.0,7.0,77,0.00,,,0.00,meteohub,2013-10-28 22:08:00,
2013-10-28 18:09:00,58.3,51.1,30.20,South,179,1.0,7.0,77,0.00,,,0.00,meteohub,2013-10-28 22:09:00,
2013-10-28 18:10:00,58.3,51.1,30.20,SSW,200,2.0,7.0,77,0.00,,,0.00,meteohub,2013-10-28 22:10:00,
2013-10-28 18:11:00,58.1,50.9,30.20,SSW,209,1.0,5.0,77,0.00,,,0.00,meteohub,2013-10-28 22:11:00,
2013-10-28 18:14:00,58.1,50.9,30.21,SSW,211,2.0,5.0,77,0.00,,,0.00,meteohub,2013-10-28 22:14:00,
2013-10-28 18:15:00,58.1,50.9,30.21,SSW,211,2.0,5.0,77,0.00,,,0.00,meteohub,2013-10-28 22:15:00,
2013-10-28 18:16:00,58.1,50.9,30.21,SSW,213,1.0,5.0,77,0.00,,,0.00,meteohub,2013-10-28 22:16:00,
2013-10-28 18:17:00,58.1,50.9,30.21,SSW,213,1.0,5.0,77,0.00,,,0.00,meteohub,2013-10-28 22:17:00,
2013-10-28 18:19:00,57.9,50.7,30.21,SSW,212,2.0,5.0,77,0.00,,,0.00,meteohub,2013-10-28 22:19:00,
2013-10-28 18:20:00,57.9,50.7,30.21,SSW,212,0.0,5.0,77,0.00,,,0.00,meteohub,2013-10-28 22:20:00,
2013-10-28 18:22:00,57.9,50.7,30.21,SW,224,0.0,4.0,77,0.00,,,0.00,meteohub,2013-10-28 22:22:00,
2013-10-28 18:23:00,57.9,51.1,30.21,SW,224,2.0,4.0,78,0.00,,,0.00,meteohub,2013-10-28 22:23:00,
2013-10-28 18:25:00,57.9,51.1,30.21,SSW,213,1.0,4.0,78,0.00,,,0.00,meteohub,2013-10-28 22:25:00,
2013-10-28 18:26:00,57.9,51.1,30.21,SSW,213,1.0,4.0,78,0.00,,,0.00,meteohub,2013-10-28 22:26:00,
2013-10-28 18:27:00,57.9,51.1,30.21,SSW,213,2.0,4.0,78,0.00,,,0.00,meteohub,2013-10-28 22:27:00,
2013-10-28 18:28:00,57.9,51.1,30.21,SW,217,2.0,4.0,78,0.00,,,0.00,meteohub,2013-10-28 22:28:00,
2013-10-28 18:30:00,57.9,51.1,30.21,SW,232,2.0,4.0,78,0.00,,,0.00,meteohub,2013-10-28 22:30:00,
2013-10-28 18:31:00,57.7,50.9,30.21,WSW,238,1.0,4.0,78,0.00,,,0.00,meteohub,2013-10-28 22:31:00,
2013-10-28 18:32:00,57.7,50.9,30.22,SW,232,1.0,4.0,78,0.00,,,0.00,meteohub,2013-10-28 22:32:00,
2013-10-28 18:34:00,57.7,50.9,30.22,SW,232,1.0,4.0,78,0.00,,,0.00,meteohub,2013-10-28 22:34:00,
2013-10-28 18:36:00,57.7,51.3,30.22,SW,232,0.0,3.0,79,0.00,,,0.00,meteohub,2013-10-28 22:36:00,
2013-10-28 18:37:00,57.7,51.3,30.22,SW,232,0.0,3.0,79,0.00,,,0.00,meteohub,2013-10-28 22:37:00,
2013-10-28 18:38:00,57.7,51.3,30.22,SW,232,0.0,3.0,79,0.00,,,0.00,meteohub,2013-10-28 22:38:00,
2013-10-28 18:39:00,57.7,51.3,30.22,SW,232,0.0,3.0,79,0.00,,,0.00,meteohub,2013-10-28 22:39:00,
2013-10-28 18:42:00,57.6,50.7,30.22,NW,304,0.0,3.0,78,0.00,,,0.00,meteohub,2013-10-28 22:42:00,
2013-10-28 18:43:00,57.6,50.7,30.22,NW,304,0.0,3.0,78,0.00,,,0.00,meteohub,2013-10-28 22:43:00,
2013-10-28 18:45:00,57.2,50.4,30.22,NW,304,0.0,3.0,78,0.00,,,0.00,meteohub,2013-10-28 22:45:00,
2013-10-28 18:47:00,56.8,50.0,30.22,NW,304,0.0,3.0,78,0.00,,,0.00,meteohub,2013-10-28 22:47:00,
2013-10-28 18:48:00,56.8,50.0,30.22,NW,304,0.0,3.0,78,0.00,,,0.00,meteohub,2013-10-28 22:48:00,
2013-10-28 18:50:00,56.7,49.8,30.22,NW,304,0.0,3.0,78,0.00,,,0.00,meteohub,2013-10-28 22:50:00,
2013-10-28 18:53:00,56.3,49.5,30.22,NW,304,1.0,2.0,78,0.00,,,0.00,meteohub,2013-10-28 22:53:00,
2013-10-28 18:54:00,56.1,49.6,30.22,NW,304,0.0,2.0,79,0.00,,,0.00,meteohub,2013-10-28 22:54:00,
2013-10-28 18:56:00,55.9,49.5,30.22,WNW,284,0.0,2.0,79,0.00,,,0.00,meteohub,2013-10-28 22:56:00,
2013-10-28 18:58:00,55.9,49.5,30.22,WNW,284,2.0,2.0,79,0.00,,,0.00,meteohub,2013-10-28 22:58:00,
2013-10-28 18:59:00,55.8,49.3,30.22,WNW,284,0.0,2.0,79,0.00,,,0.00,meteohub,2013-10-28 22:59:00,
2013-10-28 19:01:00,55.8,49.3,30.23,WNW,284,0.0,2.0,79,0.00,,,0.00,meteohub,2013-10-28 23:01:00,
2013-10-28 19:03:00,55.6,49.5,30.23,WNW,284,0.0,2.0,80,0.00,,,0.00,meteohub,2013-10-28 23:03:00,
2013-10-28 19:04:00,55.6,49.5,30.23,WNW,284,0.0,2.0,80,0.00,,,0.00,meteohub,2013-10-28 23:04:00,
2013-10-28 19:05:00,55.4,49.3,30.23,WNW,284,0.0,2.0,80,0.00,,,0.00,meteohub,2013-10-28 23:05:00,
2013-10-28 19:07:00,55.4,49.3,30.23,WNW,284,0.0,2.0,80,0.00,,,0.00,meteohub,2013-10-28 23:07:00,
2013-10-28 19:08:00,55.2,49.1,30.23,WNW,284,0.0,2.0,80,0.00,,,0.00,meteohub,2013-10-28 23:08:00,
2013-10-28 19:09:00,55.2,49.1,30.23,WNW,284,0.0,2.0,80,0.00,,,0.00,meteohub,2013-10-28 23:09:00,
2013-10-28 19:10:00,55.2,49.1,30.23,WNW,284,0.0,2.0,80,0.00,,,0.00,meteohub,2013-10-28 23:10:00,
2013-10-28 19:12:00,55.0,48.9,30.23,WNW,284,0.0,2.0,80,0.00,,,0.00,meteohub,2013-10-28 23:12:00,
2013-10-28 19:13:00,55.0,48.9,30.23,WNW,284,0.0,2.0,80,0.00,,,0.00,meteohub,2013-10-28 23:13:00,
2013-10-28 19:15:00,55.0,48.9,30.23,WNW,284,0.0,2.0,80,0.00,,,0.00,meteohub,2013-10-28 23:15:00,
2013-10-28 19:17:00,55.0,48.9,30.23,WNW,284,0.0,1.0,80,0.00,,,0.00,meteohub,2013-10-28 23:17:00,
2013-10-28 19:18:00,55.0,48.9,30.23,WNW,284,0.0,1.0,80,0.00,,,0.00,meteohub,2013-10-28 23:18:00,
2013-10-28 19:20:00,54.9,48.7,30.23,WNW,284,0.0,1.0,80,0.00,,,0.00,meteohub,2013-10-28 23:20:00,
2013-10-28 19:21:00,54.9,49.1,30.23,WNW,284,0.0,1.0,81,0.00,,,0.00,meteohub,2013-10-28 23:21:00,
2013-10-28 19:22:00,54.9,49.1,30.24,WNW,284,0.0,1.0,81,0.00,,,0.00,meteohub,2013-10-28 23:22:00,
2013-10-28 19:23:00,54.9,49.1,30.24,WNW,284,0.0,1.0,81,0.00,,,0.00,meteohub,2013-10-28 23:23:00,
2013-10-28 19:24:00,54.9,49.1,30.23,WNW,284,0.0,1.0,81,0.00,,,0.00,meteohub,2013-10-28 23:24:00,
2013-10-28 19:25:00,54.9,49.1,30.24,WNW,284,0.0,1.0,81,0.00,,,0.00,meteohub,2013-10-28 23:25:00,
2013-10-28 19:26:00,54.9,49.1,30.24,WNW,284,0.0,1.0,81,0.00,,,0.00,meteohub,2013-10-28 23:26:00,
2013-10-28 19:27:00,54.9,49.1,30.24,WNW,284,0.0,1.0,81,0.00,,,0.00,meteohub,2013-10-28 23:27:00,
2013-10-28 19:28:00,54.9,49.1,30.24,WNW,284,0.0,1.0,81,0.00,,,0.00,meteohub,2013-10-28 23:28:00,
2013-10-28 19:29:00,54.9,49.1,30.24,WNW,284,0.0,1.0,81,0.00,,,0.00,meteohub,2013-10-28 23:29:00,
2013-10-28 19:30:00,54.9,49.1,30.24,WNW,284,0.0,1.0,81,0.00,,,0.00,meteohub,2013-10-28 23:30:00,
2013-10-28 19:32:00,54.9,49.1,30.24,WNW,284,0.0,1.0,81,0.00,,,0.00,meteohub,2013-10-28 23:32:00,
2013-10-28 19:34:00,54.7,48.9,30.24,WNW,284,0.0,1.0,81,0.00,,,0.00,meteohub,2013-10-28 23:34:00,
2013-10-28 19:36:00,54.7,48.9,30.24,WNW,284,0.0,1.0,81,0.00,,,0.00,meteohub,2013-10-28 23:36:00,
2013-10-28 19:37:00,54.7,48.9,30.24,WNW,284,0.0,1.0,81,0.00,,,0.00,meteohub,2013-10-28 23:37:00,
2013-10-28 19:39:00,54.7,48.9,30.24,WNW,284,0.0,1.0,81,0.00,,,0.00,meteohub,2013-10-28 23:39:00,
2013-10-28 19:40:00,54.7,48.9,30.24,WNW,284,0.0,1.0,81,0.00,,,0.00,meteohub,2013-10-28 23:40:00,
2013-10-28 19:41:00,54.7,48.9,30.24,WNW,284,0.0,0.0,81,0.00,,,0.00,meteohub,2013-10-28 23:41:00,
2013-10-28 19:42:00,54.5,48.7,30.24,WNW,284,0.0,0.0,81,0.00,,,0.00,meteohub,2013-10-28 23:42:00,
2013-10-28 19:44:00,54.5,48.7,30.23,WNW,284,0.0,0.0,81,0.00,,,0.00,meteohub,2013-10-28 23:44:00,
2013-10-28 19:45:00,54.3,48.6,30.24,WNW,284,0.0,0.0,81,0.00,,,0.00,meteohub,2013-10-28 23:45:00,
2013-10-28 19:46:00,54.3,48.6,30.24,WNW,284,0.0,1.0,81,0.00,,,0.00,meteohub,2013-10-28 23:46:00,
2013-10-28 19:47:00,54.3,48.6,30.23,WNW,284,0.0,1.0,81,0.00,,,0.00,meteohub,2013-10-28 23:47:00,
2013-10-28 19:49:00,54.3,48.9,30.23,WNW,284,0.0,1.0,82,0.00,,,0.00,meteohub,2013-10-28 23:49:00,
2013-10-28 19:50:00,54.3,48.9,30.23,WNW,284,0.0,1.0,82,0.00,,,0.00,meteohub,2013-10-28 23:50:00,
2013-10-28 19:51:00,54.3,48.9,30.23,WNW,284,0.0,1.0,82,0.00,,,0.00,meteohub,2013-10-28 23:51:00,
2013-10-28 19:53:00,54.3,48.9,30.23,WNW,284,0.0,1.0,82,0.00,,,0.00,meteohub,2013-10-28 23:53:00,
2013-10-28 19:54:00,54.3,48.9,30.24,WNW,284,0.0,1.0,82,0.00,,,0.00,meteohub,2013-10-28 23:54:00,
2013-10-28 19:55:00,54.3,48.9,30.24,WNW,284,0.0,1.0,82,0.00,,,0.00,meteohub,2013-10-28 23:55:00,
2013-10-28 19:56:00,54.1,48.7,30.24,WNW,284,0.0,1.0,82,0.00,,,0.00,meteohub,2013-10-28 23:56:00,
2013-10-28 19:58:00,54.1,48.7,30.24,WNW,284,0.0,1.0,82,0.00,,,0.00,meteohub,2013-10-28 23:58:00,
2013-10-28 19:59:00,54.1,48.7,30.24,WNW,284,0.0,1.0,82,0.00,,,0.00,meteohub,2013-10-28 23:59:00,
2013-10-28 20:00:00,54.1,48.7,30.24,WNW,284,0.0,1.0,82,0.00,,,0.00,meteohub,2013-10-29 00:00:00,
2013-10-28 20:01:00,54.1,48.7,30.24,WNW,284,0.0,1.0,82,0.00,,,0.00,meteohub,2013-10-29 00:01:00,
2013-10-28 20:04:00,54.1,48.7,30.24,WNW,284,0.0,1.0,82,0.00,,,0.00,meteohub,2013-10-29 00:04:00,
2013-10-28 20:05:00,54.0,48.6,30.24,WNW,284,0.0,1.0,82,0.00,,,0.00,meteohub,2013-10-29 00:05:00,
2013-10-28 20:06:00,54.0,48.6,30.24,WNW,284,0.0,1.0,82,0.00,,,0.00,meteohub,2013-10-29 00:06:00,
2013-10-28 20:07:00,54.0,48.6,30.24,WNW,284,0.0,1.0,82,0.00,,,0.00,meteohub,2013-10-29 00:07:00,
2013-10-28 20:09:00,54.0,48.6,30.24,WNW,284,0.0,1.0,82,0.00,,,0.00,meteohub,2013-10-29 00:09:00,
2013-10-28 20:10:00,54.0,48.6,30.24,WNW,284,0.0,1.0,82,0.00,,,0.00,meteohub,2013-10-29 00:10:00,
2013-10-28 20:11:00,54.0,48.6,30.24,WNW,284,0.0,1.0,82,0.00,,,0.00,meteohub,2013-10-29 00:11:00,
2013-10-28 20:13:00,54.0,48.6,30.24,WNW,284,0.0,1.0,82,0.00,,,0.00,meteohub,2013-10-29 00:13:00,
2013-10-28 20:14:00,54.0,48.6,30.24,WNW,284,0.0,1.0,82,0.00,,,0.00,meteohub,2013-10-29 00:14:00,
2013-10-28 20:15:00,53.8,48.4,30.24,WNW,284,0.0,1.0,82,0.00,,,0.00,meteohub,2013-10-29 00:15:00,
2013-10-28 20:16:00,53.8,48.4,30.24,WNW,284,0.0,1.0,82,0.00,,,0.00,meteohub,2013-10-29 00:16:00,
2013-10-28 20:17:00,53.8,48.4,30.24,WNW,284,0.0,1.0,82,0.00,,,0.00,meteohub,2013-10-29 00:17:00,
2013-10-28 20:19:00,53.8,48.4,30.24,WNW,284,0.0,1.0,82,0.00,,,0.00,meteohub,2013-10-29 00:19:00,
2013-10-28 20:20:00,53.8,48.4,30.24,WNW,284,0.0,0.0,82,0.00,,,0.00,meteohub,2013-10-29 00:20:00,
2013-10-28 20:21:00,53.6,48.2,30.24,WNW,284,0.0,0.0,82,0.00,,,0.00,meteohub,2013-10-29 00:21:00,
2013-10-28 20:22:00,53.6,48.2,30.24,WNW,284,0.0,0.0,82,0.00,,,0.00,meteohub,2013-10-29 00:22:00,
2013-10-28 20:24:00,53.6,48.6,30.24,WNW,284,0.0,0.0,83,0.00,,,0.00,meteohub,2013-10-29 00:24:00,
2013-10-28 20:25:00,53.6,48.6,30.24,WNW,284,0.0,0.0,83,0.00,,,0.00,meteohub,2013-10-29 00:25:00,
2013-10-28 20:26:00,53.6,48.6,30.24,WNW,284,0.0,0.0,83,0.00,,,0.00,meteohub,2013-10-29 00:26:00,
2013-10-28 20:28:00,53.6,48.6,30.24,WNW,284,0.0,0.0,83,0.00,,,0.00,meteohub,2013-10-29 00:28:00,
2013-10-28 20:30:00,53.6,48.6,30.24,WNW,284,0.0,0.0,83,0.00,,,0.00,meteohub,2013-10-29 00:30:00,
2013-10-28 20:31:00,53.6,48.6,30.24,WNW,284,0.0,0.0,83,0.00,,,0.00,meteohub,2013-10-29 00:31:00,
2013-10-28 20:32:00,53.6,48.6,30.24,WNW,284,0.0,0.0,83,0.00,,,0.00,meteohub,2013-10-29 00:32:00,
2013-10-28 20:33:00,53.6,48.6,30.24,WNW,284,0.0,0.0,83,0.00,,,0.00,meteohub,2013-10-29 00:33:00,
2013-10-28 20:35:00,53.6,48.6,30.24,WNW,284,0.0,0.0,83,0.00,,,0.00,meteohub,2013-10-29 00:35:00,
2013-10-28 20:36:00,53.6,48.6,30.24,WNW,284,0.0,1.0,83,0.00,,,0.00,meteohub,2013-10-29 00:36:00,
2013-10-28 20:37:00,53.6,48.6,30.24,WNW,284,0.0,1.0,83,0.00,,,0.00,meteohub,2013-10-29 00:37:00,
2013-10-28 20:39:00,53.4,48.4,30.24,WNW,284,0.0,1.0,83,0.00,,,0.00,meteohub,2013-10-29 00:39:00,
2013-10-28 20:40:00,53.4,48.4,30.24,WNW,284,0.0,1.0,83,0.00,,,0.00,meteohub,2013-10-29 00:40:00,
2013-10-28 20:41:00,53.4,48.4,30.24,WNW,284,0.0,1.0,83,0.00,,,0.00,meteohub,2013-10-29 00:41:00,
2013-10-28 20:42:00,53.4,48.4,30.24,WNW,284,0.0,1.0,83,0.00,,,0.00,meteohub,2013-10-29 00:42:00,
2013-10-28 20:44:00,53.2,48.2,30.24,WNW,284,0.0,1.0,83,0.00,,,0.00,meteohub,2013-10-29 00:44:00,
2013-10-28 20:45:00,53.2,48.2,30.24,WNW,284,0.0,1.0,83,0.00,,,0.00,meteohub,2013-10-29 00:45:00,
2013-10-28 20:46:00,53.2,48.2,30.24,WNW,284,0.0,1.0,83,0.00,,,0.00,meteohub,2013-10-29 00:46:00,
2013-10-28 20:48:00,53.2,48.2,30.24,WNW,284,0.0,1.0,83,0.00,,,0.00,meteohub,2013-10-29 00:48:00,
2013-10-28 20:49:00,53.2,48.2,30.24,WNW,284,0.0,1.0,83,0.00,,,0.00,meteohub,2013-10-29 00:49:00,
2013-10-28 20:50:00,53.1,48.0,30.24,WNW,284,0.0,1.0,83,0.00,,,0.00,meteohub,2013-10-29 00:50:00,
2013-10-28 20:51:00,53.1,48.0,30.24,WNW,284,0.0,0.0,83,0.00,,,0.00,meteohub,2013-10-29 00:51:00,
2013-10-28 20:52:00,53.1,48.0,30.24,WNW,284,0.0,0.0,83,0.00,,,0.00,meteohub,2013-10-29 00:52:00,
2013-10-28 20:53:00,53.1,48.0,30.24,WNW,284,0.0,0.0,83,0.00,,,0.00,meteohub,2013-10-29 00:53:00,
2013-10-28 20:54:00,53.1,48.0,30.25,WNW,284,0.0,0.0,83,0.00,,,0.00,meteohub,2013-10-29 00:54:00,
2013-10-28 20:55:00,52.9,47.8,30.25,WNW,284,0.0,0.0,83,0.00,,,0.00,meteohub,2013-10-29 00:55:00,
2013-10-28 20:56:00,52.9,47.8,30.25,WNW,284,0.0,0.0,83,0.00,,,0.00,meteohub,2013-10-29 00:56:00,
2013-10-28 20:57:00,52.9,47.8,30.25,WNW,284,0.0,0.0,83,0.00,,,0.00,meteohub,2013-10-29 00:57:00,
2013-10-28 20:58:00,52.9,47.8,30.25,WNW,284,0.0,0.0,83,0.00,,,0.00,meteohub,2013-10-29 00:58:00,
2013-10-28 20:59:00,52.9,47.8,30.25,WNW,284,0.0,0.0,83,0.00,,,0.00,meteohub,2013-10-29 00:59:00,
2013-10-28 21:01:00,52.7,47.7,30.25,WNW,284,0.0,0.0,83,0.00,,,0.00,meteohub,2013-10-29 01:01:00,
2013-10-28 21:03:00,52.5,47.5,30.25,WNW,284,0.0,0.0,83,0.00,,,0.00,meteohub,2013-10-29 01:03:00,
2013-10-28 21:05:00,52.5,47.5,30.25,WNW,284,0.0,0.0,83,0.00,,,0.00,meteohub,2013-10-29 01:05:00,
2013-10-28 21:06:00,52.5,47.5,30.25,WNW,284,0.0,0.0,83,0.00,,,0.00,meteohub,2013-10-29 01:06:00,
2013-10-28 21:08:00,52.3,47.7,30.25,WNW,284,0.0,0.0,84,0.00,,,0.00,meteohub,2013-10-29 01:08:00,
2013-10-28 21:09:00,52.3,47.7,30.25,WNW,284,0.0,0.0,84,0.00,,,0.00,meteohub,2013-10-29 01:09:00,
2013-10-28 21:11:00,52.3,47.7,30.25,WNW,284,0.0,0.0,84,0.00,,,0.00,meteohub,2013-10-29 01:11:00,
2013-10-28 21:14:00,52.3,47.7,30.25,WNW,284,0.0,0.0,84,0.00,,,0.00,meteohub,2013-10-29 01:14:00,
2013-10-28 21:15:00,52.3,47.7,30.25,WNW,284,0.0,0.0,84,0.00,,,0.00,meteohub,2013-10-29 01:15:00,
2013-10-28 21:17:00,52.2,47.5,30.25,WNW,284,0.0,0.0,84,0.00,,,0.00,meteohub,2013-10-29 01:17:00,
2013-10-28 21:18:00,52.2,47.5,30.25,WNW,284,0.0,0.0,84,0.00,,,0.00,meteohub,2013-10-29 01:18:00,
2013-10-28 21:19:00,52.2,47.5,30.25,WNW,284,0.0,0.0,84,0.00,,,0.00,meteohub,2013-10-29 01:19:00,
2013-10-28 21:20:00,52.2,47.5,30.25,WNW,284,0.0,0.0,84,0.00,,,0.00,meteohub,2013-10-29 01:20:00,
2013-10-28 21:21:00,52.2,47.5,30.25,WNW,284,0.0,0.0,84,0.00,,,0.00,meteohub,2013-10-29 01:21:00,
2013-10-28 21:23:00,52.0,47.3,30.25,WNW,284,0.0,0.0,84,0.00,,,0.00,meteohub,2013-10-29 01:23:00,
2013-10-28 21:24:00,52.0,47.3,30.25,WNW,284,0.0,0.0,84,0.00,,,0.00,meteohub,2013-10-29 01:24:00,
2013-10-28 21:25:00,52.0,47.3,30.25,WNW,284,0.0,1.0,84,0.00,,,0.00,meteohub,2013-10-29 01:25:00,
2013-10-28 21:26:00,52.0,47.3,30.25,WNW,284,0.0,1.0,84,0.00,,,0.00,meteohub,2013-10-29 01:26:00,
2013-10-28 21:29:00,51.8,47.5,30.25,WNW,284,0.0,1.0,85,0.00,,,0.00,meteohub,2013-10-29 01:29:00,
2013-10-28 21:30:00,51.8,47.5,30.25,WNW,284,0.0,1.0,85,0.00,,,0.00,meteohub,2013-10-29 01:30:00,
2013-10-28 21:31:00,51.8,47.5,30.25,WNW,284,0.0,1.0,85,0.00,,,0.00,meteohub,2013-10-29 01:31:00,
2013-10-28 21:33:00,51.6,47.3,30.25,WNW,284,0.0,1.0,85,0.00,,,0.00,meteohub,2013-10-29 01:33:00,
2013-10-28 21:34:00,51.6,47.3,30.25,WNW,284,0.0,1.0,85,0.00,,,0.00,meteohub,2013-10-29 01:34:00,
2013-10-28 21:35:00,51.6,47.3,30.25,WNW,284,0.0,1.0,85,0.00,,,0.00,meteohub,2013-10-29 01:35:00,
2013-10-28 21:36:00,51.6,47.3,30.25,WNW,284,0.0,1.0,85,0.00,,,0.00,meteohub,2013-10-29 01:36:00,
2013-10-28 21:37:00,51.6,47.3,30.25,WNW,284,0.0,1.0,85,0.00,,,0.00,meteohub,2013-10-29 01:37:00,
2013-10-28 21:38:00,51.4,47.1,30.25,WNW,284,0.0,1.0,85,0.00,,,0.00,meteohub,2013-10-29 01:38:00,
2013-10-28 21:39:00,51.4,47.1,30.25,WNW,284,0.0,1.0,85,0.00,,,0.00,meteohub,2013-10-29 01:39:00,
2013-10-28 21:40:00,51.4,47.1,30.25,WNW,284,0.0,1.0,85,0.00,,,0.00,meteohub,2013-10-29 01:40:00,
2013-10-28 21:41:00,51.4,47.1,30.25,WNW,284,0.0,1.0,85,0.00,,,0.00,meteohub,2013-10-29 01:41:00,
2013-10-28 21:42:00,51.4,47.1,30.25,WNW,284,0.0,1.0,85,0.00,,,0.00,meteohub,2013-10-29 01:42:00,
2013-10-28 21:43:00,51.4,47.5,30.25,WNW,284,0.0,1.0,86,0.00,,,0.00,meteohub,2013-10-29 01:43:00,
2013-10-28 21:45:00,51.4,47.5,30.25,WNW,284,0.0,1.0,86,0.00,,,0.00,meteohub,2013-10-29 01:45:00,
2013-10-28 21:46:00,51.4,47.5,30.25,WNW,284,0.0,1.0,86,0.00,,,0.00,meteohub,2013-10-29 01:46:00,
2013-10-28 21:47:00,51.4,47.5,30.25,WNW,284,0.0,1.0,86,0.00,,,0.00,meteohub,2013-10-29 01:47:00,
2013-10-28 21:48:00,51.6,47.5,30.25,WNW,286,2.0,2.0,86,0.00,,,0.00,meteohub,2013-10-29 01:48:00,
2013-10-28 21:50:00,51.4,47.5,30.26,WNW,286,1.0,2.0,86,0.00,,,0.00,meteohub,2013-10-29 01:50:00,
2013-10-28 21:52:00,51.4,47.5,30.26,WNW,286,2.0,2.0,86,0.00,,,0.00,meteohub,2013-10-29 01:52:00,
2013-10-28 21:53:00,51.6,47.5,30.26,WNW,286,1.0,2.0,86,0.00,,,0.00,meteohub,2013-10-29 01:53:00,
2013-10-28 21:55:00,51.4,47.5,30.26,WNW,286,1.0,2.0,86,0.00,,,0.00,meteohub,2013-10-29 01:55:00,
2013-10-28 21:56:00,51.4,47.5,30.26,WNW,286,0.0,2.0,86,0.00,,,0.00,meteohub,2013-10-29 01:56:00,
2013-10-28 21:57:00,51.4,47.5,30.26,WNW,286,0.0,2.0,86,0.00,,,0.00,meteohub,2013-10-29 01:57:00,
2013-10-28 21:59:00,51.4,47.5,30.26,WNW,286,0.0,2.0,86,0.00,,,0.00,meteohub,2013-10-29 01:59:00,
2013-10-28 22:01:00,51.4,47.5,30.26,WNW,286,0.0,2.0,86,0.00,,,0.00,meteohub,2013-10-29 02:01:00,
2013-10-28 22:02:00,51.4,47.5,30.26,WNW,286,0.0,2.0,86,0.00,,,0.00,meteohub,2013-10-29 02:02:00,
2013-10-28 22:04:00,51.3,47.3,30.26,WNW,286,0.0,2.0,86,0.00,,,0.00,meteohub,2013-10-29 02:04:00,
2013-10-28 22:05:00,51.3,47.3,30.26,WNW,286,0.0,2.0,86,0.00,,,0.00,meteohub,2013-10-29 02:05:00,
2013-10-28 22:07:00,51.3,47.3,30.26,WNW,286,2.0,2.0,86,0.00,,,0.00,meteohub,2013-10-29 02:07:00,
2013-10-28 22:08:00,51.3,47.5,30.26,WNW,286,0.0,2.0,87,0.00,,,0.00,meteohub,2013-10-29 02:08:00,
2013-10-28 22:09:00,51.1,47.3,30.26,WNW,286,0.0,2.0,87,0.00,,,0.00,meteohub,2013-10-29 02:09:00,
2013-10-28 22:10:00,51.1,47.3,30.26,WNW,286,0.0,2.0,87,0.00,,,0.00,meteohub,2013-10-29 02:10:00,
2013-10-28 22:12:00,51.1,47.3,30.26,WNW,286,0.0,2.0,87,0.00,,,0.00,meteohub,2013-10-29 02:12:00,
2013-10-28 22:13:00,51.1,47.3,30.26,WNW,286,0.0,2.0,87,0.00,,,0.00,meteohub,2013-10-29 02:13:00,
2013-10-28 22:14:00,51.1,47.3,30.26,WNW,286,0.0,2.0,87,0.00,,,0.00,meteohub,2013-10-29 02:14:00,
2013-10-28 22:17:00,50.9,47.1,30.26,WNW,286,1.0,2.0,87,0.00,,,0.00,meteohub,2013-10-29 02:17:00,
2013-10-28 22:18:00,50.9,47.1,30.26,WNW,286,0.0,2.0,87,0.00,,,0.00,meteohub,2013-10-29 02:18:00,
2013-10-28 22:20:00,50.7,46.9,30.26,WNW,286,0.0,2.0,87,0.00,,,0.00,meteohub,2013-10-29 02:20:00,
2013-10-28 22:21:00,50.7,46.9,30.26,WNW,286,1.0,2.0,87,0.00,,,0.00,meteohub,2013-10-29 02:21:00,
2013-10-28 22:22:00,50.7,46.9,30.26,WNW,286,1.0,2.0,87,0.00,,,0.00,meteohub,2013-10-29 02:22:00,
2013-10-28 22:23:00,50.7,46.9,30.26,WNW,286,0.0,2.0,87,0.00,,,0.00,meteohub,2013-10-29 02:23:00,
2013-10-28 22:24:00,50.7,46.9,30.26,WNW,286,0.0,2.0,87,0.00,,,0.00,meteohub,2013-10-29 02:24:00,
2013-10-28 22:25:00,50.7,46.9,30.26,WNW,286,0.0,2.0,87,0.00,,,0.00,meteohub,2013-10-29 02:25:00,
2013-10-28 22:27:00,50.7,47.3,30.26,WNW,286,0.0,2.0,88,0.00,,,0.00,meteohub,2013-10-29 02:27:00,
2013-10-28 22:28:00,50.7,47.3,30.26,WNW,286,0.0,2.0,88,0.00,,,0.00,meteohub,2013-10-29 02:28:00,
2013-10-28 22:30:00,50.7,47.3,30.26,WNW,288,1.0,2.0,88,0.00,,,0.00,meteohub,2013-10-29 02:30:00,
2013-10-28 22:31:00,50.7,47.3,30.26,WNW,288,0.0,2.0,88,0.00,,,0.00,meteohub,2013-10-29 02:31:00,
2013-10-28 22:32:00,50.7,47.3,30.26,WNW,288,0.0,2.0,88,0.00,,,0.00,meteohub,2013-10-29 02:32:00,
2013-10-28 22:33:00,50.7,47.3,30.26,WNW,288,0.0,2.0,88,0.00,,,0.00,meteohub,2013-10-29 02:33:00,
2013-10-28 22:34:00,50.7,47.3,30.26,WNW,288,1.0,2.0,88,0.00,,,0.00,meteohub,2013-10-29 02:34:00,
2013-10-28 22:35:00,50.7,47.3,30.26,WNW,288,2.0,2.0,88,0.00,,,0.00,meteohub,2013-10-29 02:35:00,
2013-10-28 22:36:00,50.7,47.3,30.27,WNW,288,0.0,2.0,88,0.00,,,0.00,meteohub,2013-10-29 02:36:00,
2013-10-28 22:37:00,50.7,47.3,30.27,WNW,288,0.0,2.0,88,0.00,,,0.00,meteohub,2013-10-29 02:37:00,
2013-10-28 22:38:00,50.7,47.3,30.27,WNW,288,0.0,2.0,88,0.00,,,0.00,meteohub,2013-10-29 02:38:00,
2013-10-28 22:39:00,50.7,47.3,30.27,WNW,288,0.0,2.0,88,0.00,,,0.00,meteohub,2013-10-29 02:39:00,
2013-10-28 22:41:00,50.7,47.3,30.27,WNW,288,1.0,2.0,88,0.00,,,0.00,meteohub,2013-10-29 02:41:00,
2013-10-28 22:43:00,50.5,47.1,30.27,WNW,288,2.0,2.0,88,0.00,,,0.00,meteohub,2013-10-29 02:43:00,
2013-10-28 22:44:00,50.7,47.3,30.27,WNW,288,1.0,2.0,88,0.00,,,0.00,meteohub,2013-10-29 02:44:00,
2013-10-28 22:46:00,50.7,47.3,30.27,WNW,293,1.0,2.0,88,0.00,,,0.00,meteohub,2013-10-29 02:46:00,
2013-10-28 22:48:00,50.7,47.3,30.27,WNW,293,0.0,2.0,88,0.00,,,0.00,meteohub,2013-10-29 02:48:00,
2013-10-28 22:49:00,50.7,47.3,30.27,WNW,293,0.0,2.0,88,0.00,,,0.00,meteohub,2013-10-29 02:49:00,
2013-10-28 22:52:00,50.7,47.3,30.27,WNW,293,0.0,2.0,88,0.00,,,0.00,meteohub,2013-10-29 02:52:00,
2013-10-28 22:54:00,50.5,47.1,30.27,WNW,293,1.0,2.0,88,0.00,,,0.00,meteohub,2013-10-29 02:54:00,
2013-10-28 22:55:00,50.5,47.1,30.27,WNW,293,0.0,2.0,88,0.00,,,0.00,meteohub,2013-10-29 02:55:00,
2013-10-28 22:57:00,50.5,47.1,30.27,WNW,293,0.0,2.0,88,0.00,,,0.00,meteohub,2013-10-29 02:57:00,
2013-10-28 22:59:00,50.5,47.1,30.26,WNW,293,0.0,2.0,88,0.00,,,0.00,meteohub,2013-10-29 02:59:00,
2013-10-28 23:00:00,50.5,47.1,30.26,WNW,293,0.0,2.0,88,0.00,,,0.00,meteohub,2013-10-29 03:00:00,
2013-10-28 23:01:00,50.5,47.1,30.26,WNW,293,0.0,2.0,88,0.00,,,0.00,meteohub,2013-10-29 03:01:00,
2013-10-28 23:02:00,50.5,47.1,30.26,WNW,293,0.0,2.0,88,0.00,,,0.00,meteohub,2013-10-29 03:02:00,
2013-10-28 23:05:00,50.5,47.1,30.26,WNW,293,0.0,2.0,88,0.00,,,0.00,meteohub,2013-10-29 03:05:00,
2013-10-28 23:06:00,50.5,47.1,30.26,WNW,293,0.0,2.0,88,0.00,,,0.00,meteohub,2013-10-29 03:06:00,
2013-10-28 23:07:00,50.5,47.1,30.26,WNW,293,0.0,2.0,88,0.00,,,0.00,meteohub,2013-10-29 03:07:00,
2013-10-28 23:08:00,50.5,47.1,30.27,WNW,293,0.0,2.0,88,0.00,,,0.00,meteohub,2013-10-29 03:08:00,
2013-10-28 23:11:00,50.5,47.1,30.26,WNW,293,1.0,1.0,88,0.00,,,0.00,meteohub,2013-10-29 03:11:00,
2013-10-28 23:12:00,50.5,47.1,30.26,WNW,293,0.0,1.0,88,0.00,,,0.00,meteohub,2013-10-29 03:12:00,
2013-10-28 23:14:00,50.5,47.1,30.27,WNW,293,0.0,1.0,88,0.00,,,0.00,meteohub,2013-10-29 03:14:00,
2013-10-28 23:16:00,50.5,47.1,30.27,WNW,293,0.0,2.0,88,0.00,,,0.00,meteohub,2013-10-29 03:16:00,
2013-10-28 23:17:00,50.5,47.1,30.27,WNW,293,0.0,2.0,88,0.00,,,0.00,meteohub,2013-10-29 03:17:00,
2013-10-28 23:19:00,50.5,47.1,30.27,WNW,293,0.0,2.0,88,0.00,,,0.00,meteohub,2013-10-29 03:19:00,
2013-10-28 23:21:00,50.5,47.1,30.27,WNW,293,0.0,2.0,88,0.00,,,0.00,meteohub,2013-10-29 03:21:00,
2013-10-28 23:22:00,50.5,47.1,30.27,WNW,293,0.0,2.0,88,0.00,,,0.00,meteohub,2013-10-29 03:22:00,
2013-10-28 23:24:00,50.5,47.1,30.27,WNW,293,0.0,2.0,88,0.00,,,0.00,meteohub,2013-10-29 03:24:00,
2013-10-28 23:26:00,50.5,47.1,30.27,WNW,293,0.0,2.0,88,0.00,,,0.00,meteohub,2013-10-29 03:26:00,
2013-10-28 23:27:00,50.5,47.1,30.27,WNW,293,1.0,2.0,88,0.00,,,0.00,meteohub,2013-10-29 03:27:00,
2013-10-28 23:28:00,50.5,47.1,30.27,WNW,293,0.0,2.0,88,0.00,,,0.00,meteohub,2013-10-29 03:28:00,
2013-10-28 23:29:00,50.5,47.1,30.27,WNW,293,1.0,2.0,88,0.00,,,0.00,meteohub,2013-10-29 03:29:00,
2013-10-28 23:31:00,50.7,47.3,30.27,WNW,293,0.0,1.0,88,0.00,,,0.00,meteohub,2013-10-29 03:31:00,
2013-10-28 23:33:00,50.7,47.3,30.27,WNW,293,0.0,1.0,88,0.00,,,0.00,meteohub,2013-10-29 03:33:00,
2013-10-28 23:34:00,50.7,47.3,30.27,WNW,293,0.0,1.0,88,0.00,,,0.00,meteohub,2013-10-29 03:34:00,
2013-10-28 23:36:00,50.7,47.3,30.27,WNW,293,0.0,2.0,88,0.00,,,0.00,meteohub,2013-10-29 03:36:00,
2013-10-28 23:38:00,50.9,47.5,30.27,WNW,293,1.0,2.0,88,0.00,,,0.00,meteohub,2013-10-29 03:38:00,
2013-10-28 23:39:00,50.9,47.5,30.27,WNW,293,1.0,2.0,88,0.00,,,0.00,meteohub,2013-10-29 03:39:00,
2013-10-28 23:40:00,50.9,47.5,30.27,WNW,293,0.0,2.0,88,0.00,,,0.00,meteohub,2013-10-29 03:40:00,
2013-10-28 23:41:00,51.1,47.7,30.27,WNW,293,0.0,3.0,88,0.00,,,0.00,meteohub,2013-10-29 03:41:00,
2013-10-28 23:42:00,51.1,47.7,30.27,WNW,293,0.0,3.0,88,0.00,,,0.00,meteohub,2013-10-29 03:42:00,
2013-10-28 23:43:00,51.1,47.7,30.27,WNW,293,2.0,3.0,88,0.00,,,0.00,meteohub,2013-10-29 03:43:00,
2013-10-28 23:44:00,51.1,47.7,30.27,WNW,293,0.0,3.0,88,0.00,,,0.00,meteohub,2013-10-29 03:44:00,
2013-10-28 23:45:00,51.1,47.7,30.27,WNW,293,1.0,3.0,88,0.00,,,0.00,meteohub,2013-10-29 03:45:00,
2013-10-28 23:46:00,51.1,47.7,30.27,WNW,293,1.0,3.0,88,0.00,,,0.00,meteohub,2013-10-29 03:46:00,
2013-10-28 23:47:00,51.1,47.7,30.26,WNW,293,0.0,3.0,88,0.00,,,0.00,meteohub,2013-10-29 03:47:00,
2013-10-28 23:49:00,51.1,47.7,30.27,WNW,293,2.0,3.0,88,0.00,,,0.00,meteohub,2013-10-29 03:49:00,
2013-10-28 23:50:00,51.1,47.7,30.27,WNW,293,0.0,3.0,88,0.00,,,0.00,meteohub,2013-10-29 03:50:00,
2013-10-28 23:52:00,51.1,47.7,30.27,North,11,1.0,3.0,88,0.00,,,0.00,meteohub,2013-10-29 03:52:00,
2013-10-28 23:53:00,51.3,47.8,30.27,North,11,3.0,3.0,88,0.00,,,0.00,meteohub,2013-10-29 03:53:00,
2013-10-28 23:54:00,51.3,47.8,30.27,North,9,2.0,3.0,88,0.00,,,0.00,meteohub,2013-10-29 03:54:00,
2013-10-28 23:56:00,51.3,47.8,30.27,North,9,2.0,3.0,88,0.00,,,0.00,meteohub,2013-10-29 03:56:00,
2013-10-28 23:57:00,51.3,47.8,30.27,NNE,19,3.0,3.0,88,0.00,,,0.00,meteohub,2013-10-29 03:57:00,
2013-10-28 23:58:00,51.3,47.8,30.27,NNE,15,1.0,3.0,88,0.00,,,0.00,meteohub,2013-10-29 03:58:00,